2016 Cux-Wetter.de -Die Nutzung der Wetterdaten nur mit ausdrcklicher Genehmigung
Wetterdaten: Samstag, 31.12.2016
Datum Zeit Temp. A. Feuchte A. Luftdruck Regen Wind Richtung Richtung Sonnenschein Solar Taupunkt Windchill Windben
31.12.2016 00:00 2,0 C 98 % 1030,8 hPa 0,0 l/m 20,1 km/h (4 Bft) S-SW 207 0 min 0 W/m 1,7 C -7,1 C 29,0 km/h (5 Bft)
31.12.2016 00:03 2,0 C 98 % 1030,8 hPa 0,0 l/m 18,1 km/h (3 Bft) W-SW 249 0 min 0 W/m 1,7 C -6,2 C 25,7 km/h (4 Bft)
31.12.2016 00:06 2,1 C 98 % 1030,8 hPa 0,0 l/m 18,2 km/h (3 Bft) S-SW 207 0 min 0 W/m 1,8 C -6,1 C 29,0 km/h (5 Bft)
31.12.2016 00:09 2,1 C 98 % 1030,8 hPa 0,0 l/m 15,6 km/h (3 Bft) S-SW 212 0 min 0 W/m 1,8 C -4,8 C 22,5 km/h (4 Bft)
31.12.2016 00:12 2,1 C 98 % 1030,8 hPa 0,0 l/m 15,0 km/h (3 Bft) S-SW 211 0 min 0 W/m 1,8 C -4,4 C 25,7 km/h (4 Bft)
31.12.2016 00:15 2,1 C 98 % 1030,7 hPa 0,0 l/m 17,8 km/h (3 Bft) W-SW 238 0 min 0 W/m 1,8 C -5,9 C 27,4 km/h (5 Bft)
31.12.2016 00:18 2,2 C 98 % 1030,7 hPa 0,0 l/m 18,7 km/h (3 Bft) W-SW 238 0 min 0 W/m 1,9 C -6,2 C 30,6 km/h (5 Bft)
31.12.2016 00:21 2,2 C 98 % 1030,6 hPa 0,0 l/m 17,2 km/h (3 Bft) SW 234 0 min 0 W/m 1,9 C -5,5 C 24,1 km/h (4 Bft)
31.12.2016 00:24 2,2 C 98 % 1030,6 hPa 0,0 l/m 15,9 km/h (3 Bft) SW 234 0 min 0 W/m 1,9 C -4,8 C 25,7 km/h (4 Bft)
31.12.2016 00:27 2,2 C 98 % 1030,6 hPa 0,0 l/m 16,8 km/h (3 Bft) SW 219 0 min 0 W/m 1,9 C -5,3 C 27,4 km/h (5 Bft)
31.12.2016 00:30 2,2 C 98 % 1030,7 hPa 0,0 l/m 16,9 km/h (3 Bft) SW 217 0 min 0 W/m 1,9 C -5,3 C 24,1 km/h (4 Bft)
31.12.2016 00:33 2,2 C 98 % 1030,7 hPa 0,0 l/m 15,4 km/h (3 Bft) W-SW 247 0 min 0 W/m 1,9 C -4,5 C 20,9 km/h (4 Bft)
31.12.2016 00:36 2,2 C 98 % 1030,6 hPa 0,0 l/m 15,2 km/h (3 Bft) W 261 0 min 0 W/m 1,9 C -4,4 C 22,5 km/h (4 Bft)
31.12.2016 00:39 2,3 C 98 % 1030,5 hPa 0,0 l/m 16,9 km/h (3 Bft) SW 226 0 min 0 W/m 2,0 C -5,2 C 24,1 km/h (4 Bft)
31.12.2016 00:42 2,3 C 98 % 1030,5 hPa 0,0 l/m 18,9 km/h (3 Bft) S-SW 202 0 min 0 W/m 2,0 C -6,2 C 27,4 km/h (5 Bft)
31.12.2016 00:45 2,3 C 98 % 1030,5 hPa 0,0 l/m 18,2 km/h (3 Bft) SW 227 0 min 0 W/m 2,0 C -5,8 C 29,0 km/h (5 Bft)
31.12.2016 00:48 2,3 C 98 % 1030,4 hPa 0,0 l/m 19,1 km/h (3 Bft) SW 227 0 min 0 W/m 2,0 C -6,3 C 27,4 km/h (5 Bft)
31.12.2016 00:51 2,3 C 98 % 1030,4 hPa 0,0 l/m 16,2 km/h (3 Bft) SW 234 0 min 0 W/m 2,0 C -4,8 C 24,1 km/h (4 Bft)
31.12.2016 00:54 2,3 C 98 % 1030,3 hPa 0,0 l/m 15,8 km/h (3 Bft) SW 223 0 min 0 W/m 2,0 C -4,6 C 20,9 km/h (4 Bft)
31.12.2016 00:57 2,4 C 98 % 1030,2 hPa 0,0 l/m 17,4 km/h (3 Bft) SW 226 0 min 0 W/m 2,1 C -5,3 C 30,6 km/h (5 Bft)
31.12.2016 01:00 2,4 C 98 % 1030,2 hPa 0,0 l/m 14,9 km/h (3 Bft) W-SW 250 0 min 0 W/m 2,1 C -4,0 C 24,1 km/h (4 Bft)
31.12.2016 01:03 2,4 C 98 % 1030,2 hPa 0,0 l/m 17,8 km/h (3 Bft) SW 236 0 min 0 W/m 2,1 C -5,5 C 25,7 km/h (4 Bft)
31.12.2016 01:06 2,5 C 98 % 1030,2 hPa 0,0 l/m 15,1 km/h (3 Bft) W-SW 257 0 min 0 W/m 2,2 C -4,0 C 24,1 km/h (4 Bft)
31.12.2016 01:09 2,6 C 98 % 1030,2 hPa 0,0 l/m 18,4 km/h (3 Bft) W-SW 254 0 min 0 W/m 2,3 C -5,6 C 27,4 km/h (5 Bft)
31.12.2016 01:12 2,6 C 98 % 1030,1 hPa 0,0 l/m 17,2 km/h (3 Bft) W-SW 239 0 min 0 W/m 2,3 C -5,0 C 24,1 km/h (4 Bft)
31.12.2016 01:15 2,6 C 98 % 1030,1 hPa 0,0 l/m 17,5 km/h (3 Bft) SW 216 0 min 0 W/m 2,3 C -5,1 C 27,4 km/h (5 Bft)
31.12.2016 01:18 2,7 C 98 % 1030,1 hPa 0,0 l/m 17,2 km/h (3 Bft) S-SW 213 0 min 0 W/m 2,4 C -4,9 C 27,4 km/h (5 Bft)
31.12.2016 01:21 2,7 C 98 % 1030,1 hPa 0,0 l/m 19,9 km/h (4 Bft) S 189 0 min 0 W/m 2,4 C -6,1 C 29,0 km/h (5 Bft)
31.12.2016 01:24 2,7 C 98 % 1030,1 hPa 0,0 l/m 18,0 km/h (3 Bft) SW 221 0 min 0 W/m 2,4 C -5,2 C 27,4 km/h (5 Bft)
31.12.2016 01:27 2,7 C 98 % 1030,2 hPa 0,0 l/m 18,7 km/h (3 Bft) W-SW 253 0 min 0 W/m 2,4 C -5,6 C 30,6 km/h (5 Bft)
31.12.2016 01:30 2,7 C 98 % 1030,2 hPa 0,0 l/m 17,0 km/h (3 Bft) S-SW 210 0 min 0 W/m 2,4 C -4,8 C 25,7 km/h (4 Bft)
31.12.2016 01:33 2,7 C 98 % 1030,2 hPa 0,0 l/m 19,3 km/h (3 Bft) SW 215 0 min 0 W/m 2,4 C -5,8 C 30,6 km/h (5 Bft)
31.12.2016 01:36 2,7 C 98 % 1030,1 hPa 0,0 l/m 19,1 km/h (3 Bft) S-SW 202 0 min 0 W/m 2,4 C -5,7 C 27,4 km/h (5 Bft)
31.12.2016 01:39 2,7 C 98 % 1030,2 hPa 0,0 l/m 20,7 km/h (4 Bft) S-SW 207 0 min 0 W/m 2,4 C -6,4 C 32,2 km/h (5 Bft)
31.12.2016 01:42 2,7 C 98 % 1030,2 hPa 0,0 l/m 18,6 km/h (3 Bft) SW 222 0 min 0 W/m 2,4 C -5,5 C 29,0 km/h (5 Bft)
31.12.2016 01:45 2,7 C 98 % 1030,1 hPa 0,0 l/m 18,0 km/h (3 Bft) S-SW 206 0 min 0 W/m 2,4 C -5,2 C 27,4 km/h (5 Bft)
31.12.2016 01:48 2,7 C 98 % 1030,1 hPa 0,0 l/m 21,2 km/h (4 Bft) S-SW 211 0 min 0 W/m 2,4 C -6,6 C 35,4 km/h (5 Bft)
31.12.2016 01:51 2,7 C 98 % 1030,1 hPa 0,0 l/m 22,2 km/h (4 Bft) W-SW 244 0 min 0 W/m 2,4 C -7,0 C 32,2 km/h (5 Bft)
31.12.2016 01:54 2,7 C 98 % 1030,1 hPa 0,0 l/m 18,6 km/h (3 Bft) SW 227 0 min 0 W/m 2,4 C -5,5 C 30,6 km/h (5 Bft)
31.12.2016 01:57 2,7 C 98 % 1030,1 hPa 0,0 l/m 19,6 km/h (3 Bft) S-SW 209 0 min 0 W/m 2,4 C -6,0 C 27,4 km/h (5 Bft)
31.12.2016 02:00 2,7 C 98 % 1030,1 hPa 0,0 l/m 20,1 km/h (4 Bft) SW 221 0 min 0 W/m 2,4 C -6,2 C 27,4 km/h (5 Bft)
31.12.2016 02:03 2,8 C 98 % 1030,0 hPa 0,0 l/m 19,6 km/h (3 Bft) SW 221 0 min 0 W/m 2,5 C -5,8 C 30,6 km/h (5 Bft)
31.12.2016 02:06 2,8 C 98 % 1030,1 hPa 0,0 l/m 19,7 km/h (3 Bft) W-SW 242 0 min 0 W/m 2,5 C -5,9 C 29,0 km/h (5 Bft)
31.12.2016 02:09 2,8 C 98 % 1030,1 hPa 0,0 l/m 18,4 km/h (3 Bft) W-SW 240 0 min 0 W/m 2,5 C -5,3 C 27,4 km/h (5 Bft)
31.12.2016 02:12 2,8 C 98 % 1030,0 hPa 0,0 l/m 18,6 km/h (3 Bft) SW 219 0 min 0 W/m 2,5 C -5,4 C 25,7 km/h (4 Bft)
31.12.2016 02:15 2,8 C 98 % 1030,0 hPa 0,0 l/m 17,0 km/h (3 Bft) W-SW 252 0 min 0 W/m 2,5 C -4,6 C 24,1 km/h (4 Bft)
31.12.2016 02:18 2,8 C 98 % 1030,0 hPa 0,0 l/m 19,0 km/h (3 Bft) W-SW 252 0 min 0 W/m 2,5 C -5,6 C 32,2 km/h (5 Bft)
31.12.2016 02:21 2,8 C 98 % 1030,0 hPa 0,0 l/m 19,7 km/h (3 Bft) S-SW 201 0 min 0 W/m 2,5 C -5,9 C 29,0 km/h (5 Bft)
31.12.2016 02:24 2,8 C 98 % 1030,1 hPa 0,0 l/m 17,7 km/h (3 Bft) SW 221 0 min 0 W/m 2,5 C -5,0 C 25,7 km/h (4 Bft)
31.12.2016 02:27 2,8 C 98 % 1030,1 hPa 0,0 l/m 14,8 km/h (3 Bft) SW 225 0 min 0 W/m 2,5 C -3,5 C 22,5 km/h (4 Bft)
31.12.2016 02:30 2,8 C 98 % 1030,0 hPa 0,0 l/m 18,6 km/h (3 Bft) W-SW 243 0 min 0 W/m 2,5 C -5,4 C 30,6 km/h (5 Bft)
31.12.2016 02:33 2,8 C 98 % 1030,0 hPa 0,0 l/m 18,8 km/h (3 Bft) SW 227 0 min 0 W/m 2,5 C -5,5 C 33,8 km/h (5 Bft)
31.12.2016 02:36 2,8 C 98 % 1030,0 hPa 0,0 l/m 17,9 km/h (3 Bft) SW 234 0 min 0 W/m 2,5 C -5,1 C 30,6 km/h (5 Bft)
31.12.2016 02:39 2,8 C 98 % 1030,0 hPa 0,0 l/m 16,9 km/h (3 Bft) W-SW 237 0 min 0 W/m 2,5 C -4,6 C 25,7 km/h (4 Bft)
31.12.2016 02:42 2,8 C 98 % 1030,0 hPa 0,0 l/m 19,6 km/h (3 Bft) W-SW 237 0 min 0 W/m 2,5 C -5,8 C 29,0 km/h (5 Bft)
31.12.2016 02:45 2,8 C 98 % 1030,0 hPa 0,0 l/m 19,1 km/h (3 Bft) W 263 0 min 0 W/m 2,5 C -5,6 C 25,7 km/h (4 Bft)
31.12.2016 02:48 2,8 C 98 % 1029,9 hPa 0,0 l/m 20,9 km/h (4 Bft) W-SW 251 0 min 0 W/m 2,5 C -6,4 C 30,6 km/h (5 Bft)
31.12.2016 02:51 2,8 C 98 % 1029,8 hPa 0,0 l/m 17,0 km/h (3 Bft) W-SW 242 0 min 0 W/m 2,5 C -4,6 C 27,4 km/h (5 Bft)
31.12.2016 02:54 2,8 C 98 % 1029,8 hPa 0,0 l/m 17,5 km/h (3 Bft) W-SW 245 0 min 0 W/m 2,5 C -4,9 C 32,2 km/h (5 Bft)
31.12.2016 02:57 2,9 C 98 % 1029,8 hPa 0,0 l/m 16,7 km/h (3 Bft) W-SW 242 0 min 0 W/m 2,6 C -4,4 C 22,5 km/h (4 Bft)
31.12.2016 03:00 2,9 C 98 % 1029,8 hPa 0,0 l/m 15,8 km/h (3 Bft) W-SW 253 0 min 0 W/m 2,6 C -3,9 C 29,0 km/h (5 Bft)
31.12.2016 03:03 2,9 C 98 % 1029,8 hPa 0,0 l/m 16,9 km/h (3 Bft) SW 222 0 min 0 W/m 2,6 C -4,5 C 27,4 km/h (5 Bft)
31.12.2016 03:06 2,9 C 98 % 1029,8 hPa 0,0 l/m 18,3 km/h (3 Bft) W-SW 241 0 min 0 W/m 2,6 C -5,1 C 30,6 km/h (5 Bft)
31.12.2016 03:09 2,9 C 98 % 1029,9 hPa 0,0 l/m 19,7 km/h (3 Bft) W-SW 244 0 min 0 W/m 2,6 C -5,8 C 27,4 km/h (5 Bft)
31.12.2016 03:12 2,9 C 98 % 1029,8 hPa 0,0 l/m 20,4 km/h (4 Bft) W-SW 243 0 min 0 W/m 2,6 C -6,1 C 29,0 km/h (5 Bft)
31.12.2016 03:15 2,9 C 98 % 1029,8 hPa 0,0 l/m 17,7 km/h (3 Bft) SW 227 0 min 0 W/m 2,6 C -4,8 C 24,1 km/h (4 Bft)
31.12.2016 03:18 2,9 C 98 % 1029,7 hPa 0,0 l/m 16,6 km/h (3 Bft) W-SW 238 0 min 0 W/m 2,6 C -4,3 C 27,4 km/h (5 Bft)
31.12.2016 03:21 2,9 C 98 % 1029,7 hPa 0,0 l/m 20,9 km/h (4 Bft) S 188 0 min 0 W/m 2,6 C -6,3 C 32,2 km/h (5 Bft)
31.12.2016 03:24 2,9 C 98 % 1029,7 hPa 0,0 l/m 20,9 km/h (4 Bft) SW 232 0 min 0 W/m 2,6 C -6,3 C 27,4 km/h (5 Bft)
31.12.2016 03:27 2,9 C 98 % 1029,7 hPa 0,0 l/m 20,4 km/h (4 Bft) S-SW 207 0 min 0 W/m 2,6 C -6,1 C 29,0 km/h (5 Bft)
31.12.2016 03:30 3,0 C 98 % 1029,7 hPa 0,0 l/m 19,2 km/h (3 Bft) S 186 0 min 0 W/m 2,7 C -5,4 C 27,4 km/h (5 Bft)
31.12.2016 03:33 2,9 C 98 % 1029,6 hPa 0,0 l/m 18,4 km/h (3 Bft) W 260 0 min 0 W/m 2,6 C -5,2 C 32,2 km/h (5 Bft)
31.12.2016 03:36 3,0 C 98 % 1029,5 hPa 0,0 l/m 16,7 km/h (3 Bft) SW 225 0 min 0 W/m 2,7 C -4,2 C 25,7 km/h (4 Bft)
31.12.2016 03:39 2,9 C 98 % 1029,5 hPa 0,0 l/m 18,1 km/h (3 Bft) SW 234 0 min 0 W/m 2,6 C -5,0 C 25,7 km/h (4 Bft)
31.12.2016 03:42 3,0 C 98 % 1029,5 hPa 0,0 l/m 20,3 km/h (4 Bft) SW 225 0 min 0 W/m 2,7 C -5,9 C 30,6 km/h (5 Bft)
31.12.2016 03:45 3,0 C 98 % 1029,5 hPa 0,0 l/m 17,9 km/h (3 Bft) SW 217 0 min 0 W/m 2,7 C -4,8 C 24,1 km/h (4 Bft)
31.12.2016 03:48 3,0 C 98 % 1029,5 hPa 0,0 l/m 16,9 km/h (3 Bft) SW 229 0 min 0 W/m 2,7 C -4,3 C 25,7 km/h (4 Bft)
31.12.2016 03:51 3,1 C 98 % 1029,5 hPa 0,0 l/m 18,4 km/h (3 Bft) W-SW 247 0 min 0 W/m 2,8 C -4,9 C 37,0 km/h (5 Bft)
31.12.2016 03:54 3,1 C 98 % 1029,5 hPa 0,0 l/m 16,9 km/h (3 Bft) SW 220 0 min 0 W/m 2,8 C -4,2 C 25,7 km/h (4 Bft)
31.12.2016 03:57 3,1 C 98 % 1029,5 hPa 0,0 l/m 17,6 km/h (3 Bft) SW 232 0 min 0 W/m 2,8 C -4,6 C 27,4 km/h (5 Bft)
31.12.2016 04:00 3,1 C 98 % 1029,5 hPa 0,0 l/m 17,5 km/h (3 Bft) SW 227 0 min 0 W/m 2,8 C -4,5 C 29,0 km/h (5 Bft)
31.12.2016 04:03 3,1 C 98 % 1029,5 hPa 0,0 l/m 18,9 km/h (3 Bft) SW 228 0 min 0 W/m 2,8 C -5,1 C 32,2 km/h (5 Bft)
31.12.2016 04:06 3,2 C 98 % 1029,4 hPa 0,0 l/m 18,5 km/h (3 Bft) SW 215 0 min 0 W/m 2,9 C -4,8 C 29,0 km/h (5 Bft)
31.12.2016 04:09 3,2 C 98 % 1029,4 hPa 0,0 l/m 19,1 km/h (3 Bft) W-SW 245 0 min 0 W/m 2,9 C -5,1 C 27,4 km/h (5 Bft)
31.12.2016 04:12 3,2 C 98 % 1029,4 hPa 0,0 l/m 18,6 km/h (3 Bft) SW 232 0 min 0 W/m 2,9 C -4,9 C 29,0 km/h (5 Bft)
31.12.2016 04:15 3,2 C 98 % 1029,4 hPa 0,0 l/m 16,5 km/h (3 Bft) S-SW 209 0 min 0 W/m 2,9 C -3,9 C 29,0 km/h (5 Bft)
31.12.2016 04:18 3,3 C 98 % 1029,3 hPa 0,0 l/m 17,8 km/h (3 Bft) SW 230 0 min 0 W/m 3,0 C -4,4 C 25,7 km/h (4 Bft)
31.12.2016 04:21 3,3 C 98 % 1029,3 hPa 0,0 l/m 18,3 km/h (3 Bft) SW 221 0 min 0 W/m 3,0 C -4,6 C 32,2 km/h (5 Bft)
31.12.2016 04:24 3,3 C 98 % 1029,2 hPa 0,0 l/m 19,1 km/h (3 Bft) SW 231 0 min 0 W/m 3,0 C -5,0 C 29,0 km/h (5 Bft)
31.12.2016 04:27 3,4 C 98 % 1029,1 hPa 0,0 l/m 17,9 km/h (3 Bft) S-SW 194 0 min 0 W/m 3,1 C -4,3 C 29,0 km/h (5 Bft)
31.12.2016 04:30 3,4 C 98 % 1029,1 hPa 0,0 l/m 17,6 km/h (3 Bft) W-SW 257 0 min 0 W/m 3,1 C -4,2 C 29,0 km/h (5 Bft)
31.12.2016 04:33 3,4 C 98 % 1029,1 hPa 0,0 l/m 15,8 km/h (3 Bft) SW 225 0 min 0 W/m 3,1 C -3,3 C 24,1 km/h (4 Bft)
31.12.2016 04:36 3,4 C 98 % 1029,1 hPa 0,0 l/m 13,5 km/h (3 Bft) SW 220 0 min 0 W/m 3,1 C -2,0 C 27,4 km/h (5 Bft)
31.12.2016 04:39 3,3 C 98 % 1029,1 hPa 0,0 l/m 14,1 km/h (3 Bft) W-SW 240 0 min 0 W/m 3,0 C -2,5 C 24,1 km/h (4 Bft)
31.12.2016 04:42 3,4 C 98 % 1029,1 hPa 0,0 l/m 15,7 km/h (3 Bft) SW 229 0 min 0 W/m 3,1 C -3,2 C 27,4 km/h (5 Bft)
31.12.2016 04:45 3,4 C 98 % 1029,1 hPa 0,0 l/m 14,8 km/h (3 Bft) S-SW 209 0 min 0 W/m 3,1 C -2,8 C 24,1 km/h (4 Bft)
31.12.2016 04:48 3,4 C 98 % 1029,0 hPa 0,0 l/m 15,6 km/h (3 Bft) S-SW 213 0 min 0 W/m 3,1 C -3,2 C 22,5 km/h (4 Bft)
31.12.2016 04:51 3,4 C 98 % 1029,1 hPa 0,0 l/m 17,4 km/h (3 Bft) W-SW 238 0 min 0 W/m 3,1 C -4,1 C 25,7 km/h (4 Bft)
31.12.2016 04:54 3,4 C 98 % 1029,0 hPa 0,0 l/m 17,1 km/h (3 Bft) W-SW 252 0 min 0 W/m 3,1 C -3,9 C 25,7 km/h (4 Bft)
31.12.2016 04:57 3,4 C 98 % 1029,0 hPa 0,0 l/m 16,7 km/h (3 Bft) S-SW 201 0 min 0 W/m 3,1 C -3,7 C 25,7 km/h (4 Bft)
31.12.2016 05:00 3,4 C 98 % 1029,0 hPa 0,0 l/m 16,7 km/h (3 Bft) SW 221 0 min 0 W/m 3,1 C -3,7 C 27,4 km/h (5 Bft)
31.12.2016 05:03 3,4 C 98 % 1028,9 hPa 0,0 l/m 16,6 km/h (3 Bft) SW 232 0 min 0 W/m 3,1 C -3,7 C 25,7 km/h (4 Bft)
31.12.2016 05:06 3,4 C 98 % 1028,9 hPa 0,0 l/m 16,1 km/h (3 Bft) SW 217 0 min 0 W/m 3,1 C -3,4 C 24,1 km/h (4 Bft)
31.12.2016 05:09 3,4 C 98 % 1028,9 hPa 0,0 l/m 15,8 km/h (3 Bft) SW 217 0 min 0 W/m 3,1 C -3,3 C 24,1 km/h (4 Bft)
31.12.2016 05:12 3,4 C 98 % 1028,9 hPa 0,0 l/m 17,9 km/h (3 Bft) SW 219 0 min 0 W/m 3,1 C -4,3 C 29,0 km/h (5 Bft)
31.12.2016 05:15 3,4 C 98 % 1028,9 hPa 0,0 l/m 15,6 km/h (3 Bft) SW 221 0 min 0 W/m 3,1 C -3,2 C 22,5 km/h (4 Bft)
31.12.2016 05:18 3,4 C 98 % 1028,8 hPa 0,0 l/m 14,2 km/h (3 Bft) SW 220 0 min 0 W/m 3,1 C -2,4 C 20,9 km/h (4 Bft)
31.12.2016 05:21 3,4 C 98 % 1028,8 hPa 0,0 l/m 15,2 km/h (3 Bft) W-SW 240 0 min 0 W/m 3,1 C -3,0 C 22,5 km/h (4 Bft)
31.12.2016 05:24 3,4 C 98 % 1028,7 hPa 0,0 l/m 15,2 km/h (3 Bft) SW 223 0 min 0 W/m 3,1 C -3,0 C 22,5 km/h (4 Bft)
31.12.2016 05:27 3,3 C 98 % 1028,8 hPa 0,0 l/m 15,1 km/h (3 Bft) S-SO 154 0 min 0 W/m 3,0 C -3,0 C 19,3 km/h (3 Bft)
31.12.2016 05:30 3,3 C 98 % 1028,7 hPa 0,0 l/m 14,6 km/h (3 Bft) SW 218 0 min 0 W/m 3,0 C -2,8 C 20,9 km/h (4 Bft)
31.12.2016 05:33 3,3 C 98 % 1028,7 hPa 0,0 l/m 13,1 km/h (3 Bft) SW 227 0 min 0 W/m 3,0 C -1,9 C 19,3 km/h (3 Bft)
31.12.2016 05:36 3,2 C 98 % 1028,7 hPa 0,0 l/m 13,2 km/h (3 Bft) S-SW 198 0 min 0 W/m 2,9 C -2,1 C 22,5 km/h (4 Bft)
31.12.2016 05:39 3,2 C 98 % 1028,6 hPa 0,0 l/m 13,9 km/h (3 Bft) SW 226 0 min 0 W/m 2,9 C -2,5 C 20,9 km/h (4 Bft)
31.12.2016 05:42 3,2 C 98 % 1028,6 hPa 0,0 l/m 15,5 km/h (3 Bft) SW 215 0 min 0 W/m 2,9 C -3,4 C 25,7 km/h (4 Bft)
31.12.2016 05:45 3,1 C 98 % 1028,5 hPa 0,0 l/m 13,2 km/h (3 Bft) SW 232 0 min 0 W/m 2,8 C -2,2 C 19,3 km/h (3 Bft)
31.12.2016 05:48 3,1 C 98 % 1028,5 hPa 0,0 l/m 15,0 km/h (3 Bft) S 180 0 min 0 W/m 2,8 C -3,2 C 25,7 km/h (4 Bft)
31.12.2016 05:51 3,1 C 98 % 1028,5 hPa 0,0 l/m 13,9 km/h (3 Bft) SW 227 0 min 0 W/m 2,8 C -2,6 C 24,1 km/h (4 Bft)
31.12.2016 05:54 3,1 C 98 % 1028,4 hPa 0,0 l/m 15,1 km/h (3 Bft) W-SW 244 0 min 0 W/m 2,8 C -3,3 C 22,5 km/h (4 Bft)
31.12.2016 05:57 3,1 C 98 % 1028,4 hPa 0,0 l/m 15,5 km/h (3 Bft) SW 236 0 min 0 W/m 2,8 C -3,5 C 22,5 km/h (4 Bft)
31.12.2016 06:00 3,1 C 98 % 1028,5 hPa 0,0 l/m 14,9 km/h (3 Bft) SW 217 0 min 0 W/m 2,8 C -3,2 C 22,5 km/h (4 Bft)
31.12.2016 06:03 3,1 C 98 % 1028,5 hPa 0,0 l/m 12,6 km/h (3 Bft) W-SW 242 0 min 0 W/m 2,8 C -1,8 C 20,9 km/h (4 Bft)
31.12.2016 06:06 3,1 C 98 % 1028,4 hPa 0,0 l/m 14,0 km/h (3 Bft) S-SW 205 0 min 0 W/m 2,8 C -2,7 C 24,1 km/h (4 Bft)
31.12.2016 06:09 3,1 C 98 % 1028,4 hPa 0,0 l/m 16,8 km/h (3 Bft) W-SW 242 0 min 0 W/m 2,8 C -4,2 C 25,7 km/h (4 Bft)
31.12.2016 06:12 3,1 C 98 % 1028,4 hPa 0,0 l/m 16,8 km/h (3 Bft) SW 235 0 min 0 W/m 2,8 C -4,2 C 27,4 km/h (5 Bft)
31.12.2016 06:15 3,1 C 98 % 1028,4 hPa 0,0 l/m 15,0 km/h (3 Bft) SW 220 0 min 0 W/m 2,8 C -3,2 C 27,4 km/h (5 Bft)
31.12.2016 06:18 3,1 C 98 % 1028,4 hPa 0,0 l/m 15,4 km/h (3 Bft) W-SW 238 0 min 0 W/m 2,8 C -3,4 C 22,5 km/h (4 Bft)
31.12.2016 06:21 3,1 C 98 % 1028,4 hPa 0,0 l/m 15,6 km/h (3 Bft) SW 221 0 min 0 W/m 2,8 C -3,5 C 22,5 km/h (4 Bft)
31.12.2016 06:24 3,1 C 98 % 1028,3 hPa 0,0 l/m 14,6 km/h (3 Bft) S 179 0 min 0 W/m 2,8 C -3,0 C 22,5 km/h (4 Bft)
31.12.2016 06:27 3,1 C 98 % 1028,4 hPa 0,0 l/m 16,5 km/h (3 Bft) SW 215 0 min 0 W/m 2,8 C -4,0 C 22,5 km/h (4 Bft)
31.12.2016 06:30 3,2 C 98 % 1028,4 hPa 0,0 l/m 14,3 km/h (3 Bft) SW 222 0 min 0 W/m 2,9 C -2,7 C 24,1 km/h (4 Bft)
31.12.2016 06:33 3,2 C 98 % 1028,3 hPa 0,0 l/m 13,5 km/h (3 Bft) SW 217 0 min 0 W/m 2,9 C -2,3 C 22,5 km/h (4 Bft)
31.12.2016 06:36 3,2 C 98 % 1028,3 hPa 0,0 l/m 14,2 km/h (3 Bft) SW 228 0 min 0 W/m 2,9 C -2,7 C 20,9 km/h (4 Bft)
31.12.2016 06:39 3,2 C 98 % 1028,2 hPa 0,0 l/m 15,2 km/h (3 Bft) SW 229 0 min 0 W/m 2,9 C -3,2 C 24,1 km/h (4 Bft)
31.12.2016 06:42 3,2 C 98 % 1028,1 hPa 0,0 l/m 15,2 km/h (3 Bft) SW 234 0 min 0 W/m 2,9 C -3,2 C 27,4 km/h (5 Bft)
31.12.2016 06:45 3,3 C 98 % 1028,1 hPa 0,0 l/m 16,2 km/h (3 Bft) SW 226 0 min 0 W/m 3,0 C -3,6 C 27,4 km/h (5 Bft)
31.12.2016 06:48 3,3 C 98 % 1028,1 hPa 0,0 l/m 18,7 km/h (3 Bft) SW 232 0 min 0 W/m 3,0 C -4,8 C 30,6 km/h (5 Bft)
31.12.2016 06:51 3,3 C 98 % 1028,0 hPa 0,0 l/m 16,2 km/h (3 Bft) SW 214 0 min 0 W/m 3,0 C -3,6 C 24,1 km/h (4 Bft)
31.12.2016 06:54 3,3 C 98 % 1027,9 hPa 0,0 l/m 15,2 km/h (3 Bft) W-SW 243 0 min 0 W/m 3,0 C -3,1 C 24,1 km/h (4 Bft)
31.12.2016 06:57 3,3 C 98 % 1027,9 hPa 0,0 l/m 17,0 km/h (3 Bft) W 261 0 min 0 W/m 3,0 C -4,0 C 29,0 km/h (5 Bft)
31.12.2016 07:00 3,4 C 98 % 1027,9 hPa 0,0 l/m 17,7 km/h (3 Bft) SW 232 0 min 0 W/m 3,1 C -4,2 C 25,7 km/h (4 Bft)
31.12.2016 07:03 3,4 C 98 % 1027,9 hPa 0,0 l/m 17,4 km/h (3 Bft) SW 233 0 min 0 W/m 3,1 C -4,1 C 27,4 km/h (5 Bft)
31.12.2016 07:06 3,4 C 98 % 1028,0 hPa 0,0 l/m 18,9 km/h (3 Bft) SW 223 0 min 0 W/m 3,1 C -4,8 C 25,7 km/h (4 Bft)
31.12.2016 07:09 3,4 C 98 % 1028,0 hPa 0,0 l/m 17,0 km/h (3 Bft) SW 221 0 min 0 W/m 3,1 C -3,9 C 24,1 km/h (4 Bft)
31.12.2016 07:12 3,5 C 98 % 1027,9 hPa 0,0 l/m 17,6 km/h (3 Bft) SW 215 0 min 0 W/m 3,2 C -4,0 C 27,4 km/h (5 Bft)
31.12.2016 07:15 3,5 C 98 % 1027,9 hPa 0,0 l/m 16,4 km/h (3 Bft) S-SW 205 0 min 0 W/m 3,2 C -3,5 C 22,5 km/h (4 Bft)
31.12.2016 07:18 3,5 C 98 % 1027,9 hPa 0,0 l/m 15,3 km/h (3 Bft) SW 225 0 min 0 W/m 3,2 C -2,9 C 22,5 km/h (4 Bft)
31.12.2016 07:21 3,5 C 98 % 1027,9 hPa 0,0 l/m 17,9 km/h (3 Bft) SW 229 0 min 0 W/m 3,2 C -4,2 C 27,4 km/h (5 Bft)
31.12.2016 07:24 3,5 C 98 % 1027,9 hPa 0,0 l/m 16,7 km/h (3 Bft) S-SW 212 0 min 0 W/m 3,2 C -3,6 C 24,1 km/h (4 Bft)
31.12.2016 07:27 3,5 C 98 % 1027,8 hPa 0,0 l/m 17,2 km/h (3 Bft) SW 216 0 min 0 W/m 3,2 C -3,9 C 24,1 km/h (4 Bft)
31.12.2016 07:30 3,5 C 98 % 1027,8 hPa 0,0 l/m 15,1 km/h (3 Bft) S-SW 213 0 min 0 W/m 3,2 C -2,8 C 22,5 km/h (4 Bft)
31.12.2016 07:33 3,5 C 98 % 1027,7 hPa 0,0 l/m 16,8 km/h (3 Bft) SW 224 0 min 0 W/m 3,2 C -3,7 C 25,7 km/h (4 Bft)
31.12.2016 07:36 3,5 C 98 % 1027,7 hPa 0,0 l/m 15,1 km/h (3 Bft) S-SW 204 0 min 0 W/m 3,2 C -2,8 C 24,1 km/h (4 Bft)
31.12.2016 07:39 3,6 C 98 % 1027,7 hPa 0,0 l/m 14,2 km/h (3 Bft) SW 221 0 min 0 W/m 3,3 C -2,2 C 22,5 km/h (4 Bft)
31.12.2016 07:42 3,6 C 98 % 1027,7 hPa 0,0 l/m 14,2 km/h (3 Bft) SW 221 0 min 0 W/m 3,3 C -2,2 C 20,9 km/h (4 Bft)
31.12.2016 07:45 3,6 C 98 % 1027,7 hPa 0,0 l/m 14,5 km/h (3 Bft) SW 219 0 min 0 W/m 3,3 C -2,3 C 20,9 km/h (4 Bft)
31.12.2016 07:48 3,6 C 98 % 1027,6 hPa 0,0 l/m 17,5 km/h (3 Bft) S-SW 207 0 min 0 W/m 3,3 C -3,9 C 27,4 km/h (5 Bft)
31.12.2016 07:51 3,6 C 98 % 1027,5 hPa 0,0 l/m 15,9 km/h (3 Bft) SW 227 0 min 0 W/m 3,3 C -3,1 C 32,2 km/h (5 Bft)
31.12.2016 07:54 3,6 C 98 % 1027,5 hPa 0,0 l/m 15,8 km/h (3 Bft) SW 224 0 min 0 W/m 3,3 C -3,0 C 25,7 km/h (4 Bft)
31.12.2016 07:57 3,6 C 98 % 1027,4 hPa 0,0 l/m 16,0 km/h (3 Bft) SW 234 0 min 0 W/m 3,3 C -3,1 C 22,5 km/h (4 Bft)
31.12.2016 08:00 3,6 C 98 % 1027,4 hPa 0,0 l/m 14,6 km/h (3 Bft) W-SW 248 0 min 0 W/m 3,3 C -2,4 C 20,9 km/h (4 Bft)
31.12.2016 08:03 3,6 C 98 % 1027,4 hPa 0,0 l/m 16,7 km/h (3 Bft) SW 234 0 min 0 W/m 3,3 C -3,5 C 29,0 km/h (5 Bft)
31.12.2016 08:06 3,7 C 98 % 1027,5 hPa 0,0 l/m 16,9 km/h (3 Bft) W-SW 238 0 min 0 W/m 3,4 C -3,5 C 24,1 km/h (4 Bft)
31.12.2016 08:09 3,7 C 98 % 1027,5 hPa 0,0 l/m 14,5 km/h (3 Bft) SW 228 0 min 0 W/m 3,4 C -2,2 C 22,5 km/h (4 Bft)
31.12.2016 08:12 3,7 C 98 % 1027,6 hPa 0,0 l/m 17,7 km/h (3 Bft) SW 224 0 min 0 W/m 3,4 C -3,8 C 25,7 km/h (4 Bft)
31.12.2016 08:15 3,7 C 98 % 1027,5 hPa 0,0 l/m 16,9 km/h (3 Bft) SW 218 0 min 0 W/m 3,4 C -3,5 C 27,4 km/h (5 Bft)
31.12.2016 08:18 3,7 C 98 % 1027,6 hPa 0,0 l/m 18,4 km/h (3 Bft) S-SW 213 0 min 0 W/m 3,4 C -4,2 C 29,0 km/h (5 Bft)
31.12.2016 08:21 3,7 C 98 % 1027,5 hPa 0,0 l/m 17,8 km/h (3 Bft) S-SW 213 0 min 0 W/m 3,4 C -3,9 C 32,2 km/h (5 Bft)
31.12.2016 08:24 3,7 C 98 % 1027,5 hPa 0,0 l/m 18,3 km/h (3 Bft) S-SW 213 0 min 0 W/m 3,4 C -4,1 C 27,4 km/h (5 Bft)
31.12.2016 08:27 3,7 C 98 % 1027,5 hPa 0,0 l/m 19,4 km/h (3 Bft) S-SW 205 0 min 0 W/m 3,4 C -4,6 C 25,7 km/h (4 Bft)
31.12.2016 08:30 3,7 C 98 % 1027,5 hPa 0,0 l/m 17,4 km/h (3 Bft) SW 214 0 min 0 W/m 3,4 C -3,7 C 25,7 km/h (4 Bft)
31.12.2016 08:33 3,7 C 98 % 1027,4 hPa 0,0 l/m 18,3 km/h (3 Bft) SW 219 0 min 0 W/m 3,4 C -4,1 C 27,4 km/h (5 Bft)
31.12.2016 08:36 3,7 C 98 % 1027,5 hPa 0,0 l/m 18,9 km/h (3 Bft) S-SW 210 0 min 0 W/m 3,4 C -4,4 C 27,4 km/h (5 Bft)
31.12.2016 08:39 3,6 C 98 % 1027,5 hPa 0,0 l/m 17,4 km/h (3 Bft) SW 230 0 min 0 W/m 3,3 C -3,8 C 24,1 km/h (4 Bft)
31.12.2016 08:42 3,6 C 98 % 1027,6 hPa 0,0 l/m 16,9 km/h (3 Bft) S-SW 202 0 min 0 W/m 3,3 C -3,6 C 25,7 km/h (4 Bft)
31.12.2016 08:45 3,7 C 98 % 1027,4 hPa 0,0 l/m 18,8 km/h (3 Bft) SW 226 0 min 0 W/m 3,4 C -4,3 C 29,0 km/h (5 Bft)
31.12.2016 08:48 3,7 C 98 % 1027,4 hPa 0,0 l/m 18,4 km/h (3 Bft) S-SW 209 0 min 0 W/m 3,4 C -4,2 C 33,8 km/h (5 Bft)
31.12.2016 08:51 3,7 C 98 % 1027,4 hPa 0,0 l/m 17,9 km/h (3 Bft) SW 221 0 min 0 W/m 3,4 C -3,9 C 27,4 km/h (5 Bft)
31.12.2016 08:54 3,7 C 98 % 1027,5 hPa 0,0 l/m 19,0 km/h (3 Bft) S-SW 209 0 min 0 W/m 3,4 C -4,4 C 25,7 km/h (4 Bft)
31.12.2016 08:57 3,7 C 98 % 1027,5 hPa 0,0 l/m 16,3 km/h (3 Bft) SW 231 0 min 0 W/m 3,4 C -3,2 C 25,7 km/h (4 Bft)
31.12.2016 09:00 3,7 C 98 % 1027,5 hPa 0,0 l/m 17,1 km/h (3 Bft) S-SW 211 0 min 0 W/m 3,4 C -3,6 C 24,1 km/h (4 Bft)
31.12.2016 09:03 3,7 C 98 % 1027,5 hPa 0,0 l/m 18,1 km/h (3 Bft) SW 221 0 min 0 W/m 3,4 C -4,0 C 27,4 km/h (5 Bft)
31.12.2016 09:06 3,7 C 98 % 1027,4 hPa 0,0 l/m 16,7 km/h (3 Bft) SW 229 0 min 0 W/m 3,4 C -3,4 C 27,4 km/h (5 Bft)
31.12.2016 09:09 3,7 C 98 % 1027,5 hPa 0,0 l/m 16,0 km/h (3 Bft) SW 216 0 min 0 W/m 3,4 C -3,0 C 25,7 km/h (4 Bft)
31.12.2016 09:12 3,7 C 98 % 1027,5 hPa 0,0 l/m 16,2 km/h (3 Bft) SW 225 0 min 0 W/m 3,4 C -3,1 C 24,1 km/h (4 Bft)
31.12.2016 09:15 3,7 C 98 % 1027,5 hPa 0,0 l/m 17,5 km/h (3 Bft) SW 232 0 min 5 W/m 3,4 C -3,8 C 25,7 km/h (4 Bft)
31.12.2016 09:18 3,8 C 98 % 1027,5 hPa 0,0 l/m 18,1 km/h (3 Bft) SW 234 0 min 5 W/m 3,5 C -3,9 C 27,4 km/h (5 Bft)
31.12.2016 09:21 3,8 C 98 % 1027,5 hPa 0,0 l/m 18,9 km/h (3 Bft) SW 229 0 min 5 W/m 3,5 C -4,3 C 27,4 km/h (5 Bft)
31.12.2016 09:24 3,8 C 98 % 1027,5 hPa 0,0 l/m 15,5 km/h (3 Bft) SW 236 0 min 7 W/m 3,5 C -2,6 C 22,5 km/h (4 Bft)
31.12.2016 09:27 3,8 C 98 % 1027,4 hPa 0,0 l/m 15,8 km/h (3 Bft) SW 219 0 min 7 W/m 3,5 C -2,8 C 22,5 km/h (4 Bft)
31.12.2016 09:30 3,8 C 98 % 1027,4 hPa 0,0 l/m 18,9 km/h (3 Bft) S-SW 201 0 min 7 W/m 3,5 C -4,3 C 30,6 km/h (5 Bft)
31.12.2016 09:33 3,8 C 98 % 1027,4 hPa 0,0 l/m 17,7 km/h (3 Bft) SW 222 0 min 9 W/m 3,5 C -3,7 C 27,4 km/h (5 Bft)
31.12.2016 09:36 3,8 C 98 % 1027,4 hPa 0,0 l/m 19,8 km/h (3 Bft) SW 232 0 min 9 W/m 3,5 C -4,6 C 30,6 km/h (5 Bft)
31.12.2016 09:39 3,8 C 98 % 1027,4 hPa 0,0 l/m 20,5 km/h (4 Bft) SW 218 0 min 11 W/m 3,5 C -4,9 C 29,0 km/h (5 Bft)
31.12.2016 09:42 3,8 C 98 % 1027,4 hPa 0,0 l/m 18,2 km/h (3 Bft) S-SW 202 0 min 11 W/m 3,5 C -3,9 C 27,4 km/h (5 Bft)
31.12.2016 09:45 3,8 C 98 % 1027,3 hPa 0,0 l/m 20,7 km/h (4 Bft) SW 221 0 min 12 W/m 3,5 C -5,0 C 32,2 km/h (5 Bft)
31.12.2016 09:48 3,8 C 98 % 1027,4 hPa 0,0 l/m 19,2 km/h (3 Bft) SW 228 0 min 11 W/m 3,5 C -4,4 C 30,6 km/h (5 Bft)
31.12.2016 09:51 3,8 C 98 % 1027,4 hPa 0,0 l/m 17,3 km/h (3 Bft) SW 227 0 min 12 W/m 3,5 C -3,5 C 22,5 km/h (4 Bft)
31.12.2016 09:54 3,8 C 98 % 1027,4 hPa 0,0 l/m 18,5 km/h (3 Bft) S-SW 213 0 min 14 W/m 3,5 C -4,1 C 29,0 km/h (5 Bft)
31.12.2016 09:57 3,8 C 98 % 1027,4 hPa 0,0 l/m 19,1 km/h (3 Bft) SW 219 0 min 14 W/m 3,5 C -4,3 C 30,6 km/h (5 Bft)
31.12.2016 10:00 3,8 C 98 % 1027,5 hPa 0,0 l/m 15,3 km/h (3 Bft) S-SW 210 0 min 16 W/m 3,5 C -2,5 C 20,9 km/h (4 Bft)
31.12.2016 10:03 3,8 C 98 % 1027,6 hPa 0,0 l/m 19,1 km/h (3 Bft) W-SW 252 0 min 14 W/m 3,5 C -4,3 C 30,6 km/h (5 Bft)
31.12.2016 10:06 3,8 C 98 % 1027,5 hPa 0,0 l/m 20,6 km/h (4 Bft) S-SW 213 0 min 14 W/m 3,5 C -5,0 C 29,0 km/h (5 Bft)
31.12.2016 10:09 3,8 C 98 % 1027,5 hPa 0,0 l/m 19,5 km/h (3 Bft) S-SW 211 0 min 16 W/m 3,5 C -4,5 C 27,4 km/h (5 Bft)
31.12.2016 10:12 3,8 C 98 % 1027,5 hPa 0,0 l/m 21,2 km/h (4 Bft) SW 216 0 min 16 W/m 3,5 C -5,2 C 32,2 km/h (5 Bft)
31.12.2016 10:15 3,8 C 98 % 1027,5 hPa 0,0 l/m 18,1 km/h (3 Bft) S-SW 208 0 min 16 W/m 3,5 C -3,9 C 27,4 km/h (5 Bft)
31.12.2016 10:18 3,9 C 98 % 1027,5 hPa 0,0 l/m 17,0 km/h (3 Bft) W-SW 252 0 min 16 W/m 3,6 C -3,3 C 25,7 km/h (4 Bft)
31.12.2016 10:21 3,9 C 98 % 1027,5 hPa 0,0 l/m 17,1 km/h (3 Bft) S-SW 209 0 min 16 W/m 3,6 C -3,3 C 30,6 km/h (5 Bft)
31.12.2016 10:24 3,9 C 98 % 1027,4 hPa 0,0 l/m 16,6 km/h (3 Bft) W-SW 237 0 min 18 W/m 3,6 C -3,1 C 25,7 km/h (4 Bft)
31.12.2016 10:27 3,9 C 98 % 1027,4 hPa 0,0 l/m 15,7 km/h (3 Bft) W-SW 239 0 min 19 W/m 3,6 C -2,6 C 24,1 km/h (4 Bft)
31.12.2016 10:30 3,9 C 98 % 1027,4 hPa 0,0 l/m 20,8 km/h (4 Bft) SW 231 0 min 18 W/m 3,6 C -4,9 C 30,6 km/h (5 Bft)
31.12.2016 10:33 3,9 C 98 % 1027,4 hPa 0,0 l/m 19,7 km/h (3 Bft) SW 236 0 min 19 W/m 3,6 C -4,5 C 29,0 km/h (5 Bft)
31.12.2016 10:36 4,0 C 99 % 1027,4 hPa 0,0 l/m 17,1 km/h (3 Bft) SW 234 0 min 21 W/m 3,9 C -3,2 C 25,7 km/h (4 Bft)
31.12.2016 10:39 4,1 C 99 % 1027,5 hPa 0,0 l/m 18,9 km/h (3 Bft) W-SW 243 0 min 19 W/m 4,0 C -3,9 C 27,4 km/h (5 Bft)
31.12.2016 10:42 4,1 C 98 % 1027,5 hPa 0,0 l/m 19,9 km/h (4 Bft) W-SW 248 0 min 21 W/m 3,8 C -4,3 C 30,6 km/h (5 Bft)
31.12.2016 10:45 4,1 C 98 % 1027,5 hPa 0,0 l/m 16,9 km/h (3 Bft) W-SW 251 0 min 23 W/m 3,8 C -3,0 C 25,7 km/h (4 Bft)
31.12.2016 10:48 4,2 C 98 % 1027,5 hPa 0,0 l/m 17,2 km/h (3 Bft) SW 225 0 min 23 W/m 3,9 C -3,0 C 24,1 km/h (4 Bft)
31.12.2016 10:51 4,2 C 98 % 1027,5 hPa 0,0 l/m 16,4 km/h (3 Bft) SW 235 0 min 21 W/m 3,9 C -2,6 C 24,1 km/h (4 Bft)
31.12.2016 10:54 4,2 C 98 % 1027,5 hPa 0,0 l/m 20,6 km/h (4 Bft) W-SW 245 0 min 25 W/m 3,9 C -4,4 C 29,0 km/h (5 Bft)
31.12.2016 10:57 4,3 C 99 % 1027,4 hPa 0,0 l/m 18,8 km/h (3 Bft) SW 231 0 min 23 W/m 4,2 C -3,6 C 29,0 km/h (5 Bft)
31.12.2016 11:00 4,3 C 99 % 1027,4 hPa 0,0 l/m 17,0 km/h (3 Bft) SW 214 0 min 21 W/m 4,2 C -2,8 C 29,0 km/h (5 Bft)
31.12.2016 11:03 4,3 C 99 % 1027,4 hPa 0,0 l/m 17,4 km/h (3 Bft) W-SW 256 0 min 26 W/m 4,2 C -3,0 C 29,0 km/h (5 Bft)
31.12.2016 11:06 4,3 C 99 % 1027,4 hPa 0,0 l/m 18,3 km/h (3 Bft) W-SW 239 0 min 25 W/m 4,2 C -3,4 C 29,0 km/h (5 Bft)
31.12.2016 11:09 4,3 C 99 % 1027,3 hPa 0,0 l/m 17,2 km/h (3 Bft) SW 217 0 min 25 W/m 4,2 C -2,9 C 24,1 km/h (4 Bft)
31.12.2016 11:12 4,4 C 99 % 1027,3 hPa 0,0 l/m 16,7 km/h (3 Bft) W 275 0 min 26 W/m 4,3 C -2,5 C 30,6 km/h (5 Bft)
31.12.2016 11:15 4,4 C 99 % 1027,2 hPa 0,0 l/m 16,9 km/h (3 Bft) W-SW 240 0 min 30 W/m 4,3 C -2,6 C 30,6 km/h (5 Bft)
31.12.2016 11:18 4,4 C 98 % 1027,1 hPa 0,0 l/m 18,1 km/h (3 Bft) SW 229 0 min 32 W/m 4,1 C -3,1 C 30,6 km/h (5 Bft)
31.12.2016 11:21 4,4 C 98 % 1027,1 hPa 0,0 l/m 17,2 km/h (3 Bft) SW 235 0 min 26 W/m 4,1 C -2,7 C 24,1 km/h (4 Bft)
31.12.2016 11:24 4,5 C 98 % 1027,1 hPa 0,0 l/m 16,9 km/h (3 Bft) S-SW 213 0 min 30 W/m 4,2 C -2,5 C 25,7 km/h (4 Bft)
31.12.2016 11:27 4,5 C 98 % 1027,0 hPa 0,0 l/m 16,0 km/h (3 Bft) SW 221 0 min 26 W/m 4,2 C -2,0 C 20,9 km/h (4 Bft)
31.12.2016 11:30 4,5 C 98 % 1027,0 hPa 0,0 l/m 17,8 km/h (3 Bft) W-SW 242 0 min 30 W/m 4,2 C -2,9 C 25,7 km/h (4 Bft)
31.12.2016 11:33 4,6 C 98 % 1027,0 hPa 0,0 l/m 17,0 km/h (3 Bft) SW 224 0 min 32 W/m 4,3 C -2,4 C 25,7 km/h (4 Bft)
31.12.2016 11:36 4,6 C 98 % 1027,0 hPa 0,0 l/m 17,5 km/h (3 Bft) SW 236 0 min 32 W/m 4,3 C -2,6 C 25,7 km/h (4 Bft)
31.12.2016 11:39 4,6 C 98 % 1027,0 hPa 0,0 l/m 18,9 km/h (3 Bft) SW 229 0 min 26 W/m 4,3 C -3,2 C 27,4 km/h (5 Bft)
31.12.2016 11:42 4,6 C 98 % 1026,9 hPa 0,0 l/m 18,1 km/h (3 Bft) SW 229 0 min 30 W/m 4,3 C -2,9 C 27,4 km/h (5 Bft)
31.12.2016 11:45 4,5 C 98 % 1026,9 hPa 0,0 l/m 19,0 km/h (3 Bft) W-SW 238 0 min 33 W/m 4,2 C -3,4 C 29,0 km/h (5 Bft)
31.12.2016 11:48 4,4 C 98 % 1026,9 hPa 0,0 l/m 15,6 km/h (3 Bft) W-SW 248 0 min 26 W/m 4,1 C -2,0 C 24,1 km/h (4 Bft)
31.12.2016 11:51 4,4 C 98 % 1026,9 hPa 0,0 l/m 16,3 km/h (3 Bft) SW 228 0 min 26 W/m 4,1 C -2,3 C 27,4 km/h (5 Bft)
31.12.2016 11:54 4,4 C 98 % 1026,8 hPa 0,0 l/m 14,3 km/h (3 Bft) W-SW 238 0 min 26 W/m 4,1 C -1,3 C 22,5 km/h (4 Bft)
31.12.2016 11:57 4,4 C 98 % 1026,7 hPa 0,0 l/m 16,7 km/h (3 Bft) SW 227 0 min 32 W/m 4,1 C -2,5 C 25,7 km/h (4 Bft)
31.12.2016 12:00 4,5 C 98 % 1026,7 hPa 0,0 l/m 20,1 km/h (4 Bft) S-SW 206 0 min 28 W/m 4,2 C -3,9 C 29,0 km/h (5 Bft)
31.12.2016 12:03 4,6 C 98 % 1026,6 hPa 0,0 l/m 19,7 km/h (3 Bft) SW 230 0 min 35 W/m 4,3 C -3,6 C 29,0 km/h (5 Bft)
31.12.2016 12:06 4,6 C 99 % 1026,5 hPa 0,0 l/m 15,5 km/h (3 Bft) W-SW 248 0 min 30 W/m 4,5 C -1,7 C 22,5 km/h (4 Bft)
31.12.2016 12:09 4,7 C 99 % 1026,5 hPa 0,0 l/m 19,0 km/h (3 Bft) W-SW 245 0 min 35 W/m 4,6 C -3,1 C 29,0 km/h (5 Bft)
31.12.2016 12:12 4,7 C 99 % 1026,5 hPa 0,0 l/m 15,7 km/h (3 Bft) W-SW 253 0 min 28 W/m 4,6 C -1,6 C 24,1 km/h (4 Bft)
31.12.2016 12:15 4,7 C 99 % 1026,4 hPa 0,0 l/m 17,8 km/h (3 Bft) W-SW 242 0 min 26 W/m 4,6 C -2,6 C 25,7 km/h (4 Bft)
31.12.2016 12:18 4,7 C 99 % 1026,4 hPa 0,0 l/m 18,0 km/h (3 Bft) W-SW 254 0 min 30 W/m 4,6 C -2,7 C 30,6 km/h (5 Bft)
31.12.2016 12:21 4,7 C 99 % 1026,5 hPa 0,0 l/m 16,5 km/h (3 Bft) W-SW 250 0 min 26 W/m 4,6 C -2,0 C 25,7 km/h (4 Bft)
31.12.2016 12:24 4,7 C 99 % 1026,4 hPa 0,0 l/m 17,5 km/h (3 Bft) SW 226 0 min 25 W/m 4,6 C -2,5 C 25,7 km/h (4 Bft)
31.12.2016 12:27 4,7 C 99 % 1026,4 hPa 0,0 l/m 18,4 km/h (3 Bft) SW 221 0 min 25 W/m 4,6 C -2,9 C 27,4 km/h (5 Bft)
31.12.2016 12:30 4,7 C 99 % 1026,2 hPa 0,0 l/m 14,6 km/h (3 Bft) S-SW 213 0 min 23 W/m 4,6 C -1,1 C 25,7 km/h (4 Bft)
31.12.2016 12:33 4,7 C 99 % 1026,0 hPa 0,0 l/m 16,5 km/h (3 Bft) SW 232 0 min 23 W/m 4,6 C -2,0 C 22,5 km/h (4 Bft)
31.12.2016 12:36 4,7 C 99 % 1026,0 hPa 0,0 l/m 19,9 km/h (4 Bft) W-SW 248 0 min 25 W/m 4,6 C -3,5 C 30,6 km/h (5 Bft)
31.12.2016 12:39 4,7 C 99 % 1025,9 hPa 0,0 l/m 18,7 km/h (3 Bft) W-SW 240 0 min 26 W/m 4,6 C -3,0 C 29,0 km/h (5 Bft)
31.12.2016 12:42 4,7 C 99 % 1025,9 hPa 0,0 l/m 16,8 km/h (3 Bft) SW 225 0 min 30 W/m 4,6 C -2,2 C 22,5 km/h (4 Bft)
31.12.2016 12:45 4,7 C 99 % 1025,9 hPa 0,0 l/m 20,0 km/h (4 Bft) W-SW 250 0 min 26 W/m 4,6 C -3,6 C 29,0 km/h (5 Bft)
31.12.2016 12:48 4,7 C 99 % 1025,8 hPa 0,0 l/m 19,5 km/h (3 Bft) S-SW 202 0 min 28 W/m 4,6 C -3,4 C 30,6 km/h (5 Bft)
31.12.2016 12:51 4,7 C 99 % 1025,7 hPa 0,0 l/m 18,8 km/h (3 Bft) W-SW 239 0 min 26 W/m 4,6 C -3,1 C 27,4 km/h (5 Bft)
31.12.2016 12:54 4,7 C 99 % 1025,6 hPa 0,0 l/m 21,2 km/h (4 Bft) S-SW 212 0 min 30 W/m 4,6 C -4,0 C 29,0 km/h (5 Bft)
31.12.2016 12:57 4,7 C 99 % 1025,6 hPa 0,0 l/m 19,2 km/h (3 Bft) SW 219 0 min 28 W/m 4,6 C -3,2 C 32,2 km/h (5 Bft)
31.12.2016 13:00 4,7 C 99 % 1025,6 hPa 0,0 l/m 18,1 km/h (3 Bft) W-SW 239 0 min 30 W/m 4,6 C -2,8 C 25,7 km/h (4 Bft)
31.12.2016 13:03 4,7 C 99 % 1025,6 hPa 0,0 l/m 18,3 km/h (3 Bft) W 264 0 min 33 W/m 4,6 C -2,9 C 30,6 km/h (5 Bft)
31.12.2016 13:06 4,7 C 99 % 1025,5 hPa 0,0 l/m 16,1 km/h (3 Bft) S-SW 205 0 min 28 W/m 4,6 C -1,8 C 25,7 km/h (4 Bft)
31.12.2016 13:09 4,7 C 99 % 1025,5 hPa 0,0 l/m 20,9 km/h (4 Bft) SW 232 0 min 32 W/m 4,6 C -3,9 C 30,6 km/h (5 Bft)
31.12.2016 13:12 4,7 C 99 % 1025,4 hPa 0,0 l/m 19,1 km/h (3 Bft) S-SW 211 0 min 30 W/m 4,6 C -3,2 C 29,0 km/h (5 Bft)
31.12.2016 13:15 4,7 C 99 % 1025,4 hPa 0,0 l/m 22,0 km/h (4 Bft) W-SW 238 0 min 28 W/m 4,6 C -4,3 C 30,6 km/h (5 Bft)
31.12.2016 13:18 4,7 C 99 % 1025,5 hPa 0,0 l/m 19,9 km/h (4 Bft) SW 235 0 min 28 W/m 4,6 C -3,5 C 29,0 km/h (5 Bft)
31.12.2016 13:21 4,7 C 99 % 1025,4 hPa 0,0 l/m 21,1 km/h (4 Bft) SW 231 0 min 33 W/m 4,6 C -4,0 C 30,6 km/h (5 Bft)
31.12.2016 13:24 4,7 C 99 % 1025,4 hPa 0,0 l/m 18,4 km/h (3 Bft) S-SW 207 0 min 25 W/m 4,6 C -2,9 C 29,0 km/h (5 Bft)
31.12.2016 13:27 4,7 C 99 % 1025,4 hPa 0,0 l/m 18,3 km/h (3 Bft) SW 219 0 min 25 W/m 4,6 C -2,9 C 25,7 km/h (4 Bft)
31.12.2016 13:30 4,7 C 99 % 1025,4 hPa 0,0 l/m 15,5 km/h (3 Bft) NW 323 0 min 25 W/m 4,6 C -1,5 C 25,7 km/h (4 Bft)
31.12.2016 13:33 4,7 C 99 % 1025,4 hPa 0,0 l/m 16,9 km/h (3 Bft) SW 235 0 min 25 W/m 4,6 C -2,2 C 27,4 km/h (5 Bft)
31.12.2016 13:36 4,7 C 99 % 1025,3 hPa 0,0 l/m 18,2 km/h (3 Bft) W 270 0 min 25 W/m 4,6 C -2,8 C 29,0 km/h (5 Bft)
31.12.2016 13:39 4,7 C 99 % 1025,3 hPa 0,0 l/m 19,4 km/h (3 Bft) S-SW 211 0 min 25 W/m 4,6 C -3,3 C 29,0 km/h (5 Bft)
31.12.2016 13:42 4,7 C 99 % 1025,3 hPa 0,0 l/m 18,9 km/h (3 Bft) SW 231 0 min 23 W/m 4,6 C -3,1 C 27,4 km/h (5 Bft)
31.12.2016 13:45 4,7 C 99 % 1025,2 hPa 0,0 l/m 20,6 km/h (4 Bft) SW 225 0 min 23 W/m 4,6 C -3,8 C 33,8 km/h (5 Bft)
31.12.2016 13:48 4,7 C 99 % 1025,1 hPa 0,0 l/m 18,1 km/h (3 Bft) W-SW 238 0 min 25 W/m 4,6 C -2,8 C 30,6 km/h (5 Bft)
31.12.2016 13:51 4,7 C 99 % 1025,0 hPa 0,0 l/m 19,3 km/h (3 Bft) SW 219 0 min 21 W/m 4,6 C -3,3 C 27,4 km/h (5 Bft)
31.12.2016 13:54 4,8 C 98 % 1025,0 hPa 0,0 l/m 19,0 km/h (3 Bft) S-SW 213 0 min 21 W/m 4,5 C -3,0 C 27,4 km/h (5 Bft)
31.12.2016 13:57 4,8 C 99 % 1024,9 hPa 0,0 l/m 17,7 km/h (3 Bft) SW 225 0 min 19 W/m 4,7 C -2,5 C 27,4 km/h (5 Bft)
31.12.2016 14:00 4,8 C 99 % 1024,9 hPa 0,0 l/m 18,7 km/h (3 Bft) S-SW 195 0 min 21 W/m 4,7 C -2,9 C 29,0 km/h (5 Bft)
31.12.2016 14:03 4,8 C 99 % 1024,9 hPa 0,0 l/m 18,6 km/h (3 Bft) S-SW 196 0 min 25 W/m 4,7 C -2,9 C 29,0 km/h (5 Bft)
31.12.2016 14:06 4,8 C 99 % 1024,9 hPa 0,0 l/m 18,0 km/h (3 Bft) SW 219 0 min 19 W/m 4,7 C -2,6 C 29,0 km/h (5 Bft)
31.12.2016 14:09 4,8 C 99 % 1024,9 hPa 0,0 l/m 17,9 km/h (3 Bft) SW 234 0 min 21 W/m 4,7 C -2,5 C 24,1 km/h (4 Bft)
31.12.2016 14:12 4,8 C 99 % 1024,8 hPa 0,0 l/m 18,0 km/h (3 Bft) S-SW 207 0 min 18 W/m 4,7 C -2,6 C 24,1 km/h (4 Bft)
31.12.2016 14:15 4,8 C 99 % 1024,9 hPa 0,0 l/m 19,7 km/h (3 Bft) S-SW 209 0 min 19 W/m 4,7 C -3,3 C 30,6 km/h (5 Bft)
31.12.2016 14:18 4,8 C 99 % 1024,9 hPa 0,0 l/m 16,6 km/h (3 Bft) S 190 0 min 18 W/m 4,7 C -2,0 C 27,4 km/h (5 Bft)
31.12.2016 14:21 4,8 C 98 % 1024,8 hPa 0,0 l/m 20,4 km/h (4 Bft) W-SW 247 0 min 16 W/m 4,5 C -3,6 C 30,6 km/h (5 Bft)
31.12.2016 14:24 4,8 C 98 % 1024,8 hPa 0,0 l/m 17,3 km/h (3 Bft) SW 233 0 min 16 W/m 4,5 C -2,3 C 25,7 km/h (4 Bft)
31.12.2016 14:27 4,9 C 98 % 1024,8 hPa 0,0 l/m 17,3 km/h (3 Bft) S-SW 202 0 min 14 W/m 4,6 C -2,2 C 29,0 km/h (5 Bft)
31.12.2016 14:30 4,8 C 98 % 1024,7 hPa 0,0 l/m 20,4 km/h (4 Bft) S-SW 198 0 min 16 W/m 4,5 C -3,6 C 32,2 km/h (5 Bft)
31.12.2016 14:33 4,9 C 98 % 1024,7 hPa 0,0 l/m 21,1 km/h (4 Bft) SW 223 0 min 14 W/m 4,6 C -3,7 C 30,6 km/h (5 Bft)
31.12.2016 14:36 4,9 C 98 % 1024,6 hPa 0,0 l/m 19,9 km/h (4 Bft) SW 224 0 min 16 W/m 4,6 C -3,3 C 30,6 km/h (5 Bft)
31.12.2016 14:39 4,9 C 98 % 1024,6 hPa 0,0 l/m 19,1 km/h (3 Bft) SW 225 0 min 14 W/m 4,6 C -2,9 C 25,7 km/h (4 Bft)
31.12.2016 14:42 4,9 C 98 % 1024,5 hPa 0,0 l/m 18,7 km/h (3 Bft) SW 236 0 min 14 W/m 4,6 C -2,8 C 33,8 km/h (5 Bft)
31.12.2016 14:45 4,8 C 98 % 1024,5 hPa 0,0 l/m 16,3 km/h (3 Bft) SW 218 0 min 14 W/m 4,5 C -1,8 C 25,7 km/h (4 Bft)
31.12.2016 14:48 4,8 C 98 % 1024,5 hPa 0,0 l/m 15,6 km/h (3 Bft) SW 226 0 min 14 W/m 4,5 C -1,5 C 24,1 km/h (4 Bft)
31.12.2016 14:51 4,8 C 98 % 1024,6 hPa 0,0 l/m 18,8 km/h (3 Bft) SW 228 0 min 12 W/m 4,5 C -2,9 C 29,0 km/h (5 Bft)
31.12.2016 14:54 4,8 C 98 % 1024,6 hPa 0,0 l/m 16,4 km/h (3 Bft) S-SW 203 0 min 12 W/m 4,5 C -1,9 C 25,7 km/h (4 Bft)
31.12.2016 14:57 4,8 C 98 % 1024,6 hPa 0,0 l/m 18,5 km/h (3 Bft) SW 232 0 min 11 W/m 4,5 C -2,8 C 29,0 km/h (5 Bft)
31.12.2016 15:00 4,7 C 99 % 1024,6 hPa 0,0 l/m 17,3 km/h (3 Bft) SW 236 0 min 11 W/m 4,6 C -2,4 C 24,1 km/h (4 Bft)
31.12.2016 15:03 4,7 C 99 % 1024,6 hPa 0,0 l/m 18,0 km/h (3 Bft) SW 219 0 min 11 W/m 4,6 C -2,7 C 27,4 km/h (5 Bft)
31.12.2016 15:06 4,7 C 99 % 1024,5 hPa 0,0 l/m 20,3 km/h (4 Bft) SW 225 0 min 12 W/m 4,6 C -3,7 C 32,2 km/h (5 Bft)
31.12.2016 15:09 4,7 C 99 % 1024,4 hPa 0,0 l/m 20,6 km/h (4 Bft) SW 219 0 min 7 W/m 4,6 C -3,8 C 29,0 km/h (5 Bft)
31.12.2016 15:12 4,7 C 99 % 1024,4 hPa 0,0 l/m 21,0 km/h (4 Bft) S-SW 211 0 min 9 W/m 4,6 C -4,0 C 33,8 km/h (5 Bft)
31.12.2016 15:15 4,7 C 99 % 1024,3 hPa 0,0 l/m 17,8 km/h (3 Bft) SW 220 0 min 11 W/m 4,6 C -2,6 C 32,2 km/h (5 Bft)
31.12.2016 15:18 4,7 C 99 % 1024,3 hPa 0,0 l/m 19,5 km/h (3 Bft) SW 220 0 min 9 W/m 4,6 C -3,4 C 29,0 km/h (5 Bft)
31.12.2016 15:21 4,7 C 99 % 1024,2 hPa 0,0 l/m 19,1 km/h (3 Bft) W-SW 254 0 min 7 W/m 4,6 C -3,2 C 30,6 km/h (5 Bft)
31.12.2016 15:24 4,7 C 99 % 1024,2 hPa 0,0 l/m 18,9 km/h (3 Bft) S 191 0 min 7 W/m 4,6 C -3,1 C 25,7 km/h (4 Bft)
31.12.2016 15:27 4,7 C 99 % 1024,1 hPa 0,0 l/m 17,3 km/h (3 Bft) SW 227 0 min 7 W/m 4,6 C -2,4 C 32,2 km/h (5 Bft)
31.12.2016 15:30 4,6 C 99 % 1024,1 hPa 0,0 l/m 20,1 km/h (4 Bft) S-SW 200 0 min 7 W/m 4,5 C -3,7 C 30,6 km/h (5 Bft)
31.12.2016 15:33 4,6 C 99 % 1024,1 hPa 0,0 l/m 18,0 km/h (3 Bft) SW 232 0 min 5 W/m 4,5 C -2,8 C 25,7 km/h (4 Bft)
31.12.2016 15:36 4,6 C 99 % 1024,1 hPa 0,0 l/m 18,9 km/h (3 Bft) S-SW 210 0 min 5 W/m 4,5 C -3,2 C 27,4 km/h (5 Bft)
31.12.2016 15:39 4,6 C 99 % 1024,1 hPa 0,0 l/m 19,8 km/h (3 Bft) S-SW 199 0 min 5 W/m 4,5 C -3,6 C 32,2 km/h (5 Bft)
31.12.2016 15:42 4,7 C 99 % 1024,1 hPa 0,0 l/m 18,6 km/h (3 Bft) S 178 0 min 0 W/m 4,6 C -3,0 C 33,8 km/h (5 Bft)
31.12.2016 15:45 4,7 C 99 % 1024,1 hPa 0,0 l/m 18,6 km/h (3 Bft) SW 217 0 min 0 W/m 4,6 C -3,0 C 25,7 km/h (4 Bft)
31.12.2016 15:48 4,7 C 99 % 1024,2 hPa 0,0 l/m 17,2 km/h (3 Bft) SW 227 0 min 0 W/m 4,6 C -2,4 C 24,1 km/h (4 Bft)
31.12.2016 15:51 4,7 C 99 % 1024,1 hPa 0,0 l/m 18,0 km/h (3 Bft) SW 232 0 min 0 W/m 4,6 C -2,7 C 27,4 km/h (5 Bft)
31.12.2016 15:54 4,7 C 99 % 1024,0 hPa 0,0 l/m 19,1 km/h (3 Bft) SW 229 0 min 0 W/m 4,6 C -3,2 C 29,0 km/h (5 Bft)
31.12.2016 15:57 4,8 C 99 % 1024,0 hPa 0,0 l/m 16,0 km/h (3 Bft) SW 219 0 min 0 W/m 4,7 C -1,7 C 22,5 km/h (4 Bft)
31.12.2016 16:00 4,8 C 99 % 1023,9 hPa 0,0 l/m 18,1 km/h (3 Bft) SW 236 0 min 0 W/m 4,7 C -2,6 C 25,7 km/h (4 Bft)
31.12.2016 16:03 4,8 C 99 % 1023,9 hPa 0,0 l/m 15,7 km/h (3 Bft) SW 226 0 min 0 W/m 4,7 C -1,5 C 25,7 km/h (4 Bft)
31.12.2016 16:06 4,8 C 99 % 1024,0 hPa 0,0 l/m 18,5 km/h (3 Bft) SW 225 0 min 0 W/m 4,7 C -2,8 C 27,4 km/h (5 Bft)
31.12.2016 16:09 4,9 C 99 % 1023,9 hPa 0,0 l/m 17,4 km/h (3 Bft) S-SW 205 0 min 0 W/m 4,8 C -2,2 C 27,4 km/h (5 Bft)
31.12.2016 16:12 4,9 C 99 % 1023,9 hPa 0,0 l/m 19,8 km/h (3 Bft) W-SW 252 0 min 0 W/m 4,8 C -3,2 C 27,4 km/h (5 Bft)
31.12.2016 16:15 4,9 C 99 % 1023,9 hPa 0,0 l/m 16,9 km/h (3 Bft) SW 219 0 min 0 W/m 4,8 C -2,0 C 22,5 km/h (4 Bft)
31.12.2016 16:18 4,9 C 99 % 1023,9 hPa 0,0 l/m 18,2 km/h (3 Bft) SW 217 0 min 0 W/m 4,8 C -2,6 C 25,7 km/h (4 Bft)
31.12.2016 16:21 4,9 C 99 % 1023,9 hPa 0,0 l/m 15,8 km/h (3 Bft) S-SW 205 0 min 0 W/m 4,8 C -1,4 C 22,5 km/h (4 Bft)
31.12.2016 16:24 4,9 C 99 % 1023,9 hPa 0,0 l/m 16,5 km/h (3 Bft) S-SW 208 0 min 0 W/m 4,8 C -1,8 C 32,2 km/h (5 Bft)
31.12.2016 16:27 5,0 C 99 % 1023,9 hPa 0,0 l/m 14,8 km/h (3 Bft) S-SW 211 0 min 0 W/m 4,9 C -0,8 C 24,1 km/h (4 Bft)
31.12.2016 16:30 5,0 C 99 % 1023,8 hPa 0,0 l/m 17,0 km/h (3 Bft) SW 219 0 min 0 W/m 4,9 C -1,9 C 24,1 km/h (4 Bft)
31.12.2016 16:33 5,0 C 99 % 1023,8 hPa 0,0 l/m 18,0 km/h (3 Bft) S-SW 207 0 min 0 W/m 4,9 C -2,3 C 30,6 km/h (5 Bft)
31.12.2016 16:36 5,0 C 99 % 1023,8 hPa 0,0 l/m 16,6 km/h (3 Bft) SW 229 0 min 0 W/m 4,9 C -1,7 C 22,5 km/h (4 Bft)
31.12.2016 16:39 4,9 C 99 % 1023,7 hPa 0,0 l/m 18,7 km/h (3 Bft) SW 223 0 min 0 W/m 4,8 C -2,8 C 24,1 km/h (4 Bft)
31.12.2016 16:42 4,9 C 99 % 1023,7 hPa 0,0 l/m 14,8 km/h (3 Bft) S-SW 206 0 min 0 W/m 4,8 C -0,9 C 24,1 km/h (4 Bft)
31.12.2016 16:45 4,9 C 99 % 1023,7 hPa 0,0 l/m 16,0 km/h (3 Bft) S-SW 201 0 min 0 W/m 4,8 C -1,5 C 25,7 km/h (4 Bft)
31.12.2016 16:48 4,9 C 99 % 1023,7 hPa 0,0 l/m 16,7 km/h (3 Bft) SW 225 0 min 0 W/m 4,8 C -1,9 C 24,1 km/h (4 Bft)
31.12.2016 16:51 4,9 C 99 % 1023,7 hPa 0,0 l/m 19,9 km/h (4 Bft) SW 225 0 min 0 W/m 4,8 C -3,3 C 29,0 km/h (5 Bft)
31.12.2016 16:54 4,9 C 99 % 1023,6 hPa 0,0 l/m 16,0 km/h (3 Bft) SW 219 0 min 0 W/m 4,8 C -1,5 C 29,0 km/h (5 Bft)
31.12.2016 16:57 4,9 C 99 % 1023,6 hPa 0,0 l/m 19,4 km/h (3 Bft) SW 227 0 min 0 W/m 4,8 C -3,1 C 27,4 km/h (5 Bft)
31.12.2016 17:00 4,9 C 99 % 1023,6 hPa 0,0 l/m 17,7 km/h (3 Bft) SW 215 0 min 0 W/m 4,8 C -2,3 C 27,4 km/h (5 Bft)
31.12.2016 17:03 5,0 C 99 % 1023,5 hPa 0,0 l/m 18,3 km/h (3 Bft) SW 218 0 min 0 W/m 4,9 C -2,5 C 25,7 km/h (4 Bft)
31.12.2016 17:06 5,0 C 99 % 1023,4 hPa 0,0 l/m 21,2 km/h (4 Bft) SW 217 0 min 0 W/m 4,9 C -3,6 C 30,6 km/h (5 Bft)
31.12.2016 17:09 5,0 C 99 % 1023,4 hPa 0,0 l/m 17,7 km/h (3 Bft) SW 224 0 min 0 W/m 4,9 C -2,2 C 32,2 km/h (5 Bft)
31.12.2016 17:12 4,9 C 99 % 1023,4 hPa 0,0 l/m 18,2 km/h (3 Bft) SW 217 0 min 0 W/m 4,8 C -2,6 C 33,8 km/h (5 Bft)
31.12.2016 17:15 4,9 C 99 % 1023,3 hPa 0,0 l/m 16,3 km/h (3 Bft) W-SW 247 0 min 0 W/m 4,8 C -1,7 C 30,6 km/h (5 Bft)
31.12.2016 17:18 4,9 C 99 % 1023,3 hPa 0,0 l/m 19,1 km/h (3 Bft) S-SW 209 0 min 0 W/m 4,8 C -2,9 C 29,0 km/h (5 Bft)
31.12.2016 17:21 4,9 C 99 % 1023,3 hPa 0,0 l/m 17,0 km/h (3 Bft) SW 220 0 min 0 W/m 4,8 C -2,0 C 29,0 km/h (5 Bft)
31.12.2016 17:24 4,9 C 99 % 1023,3 hPa 0,0 l/m 17,1 km/h (3 Bft) W-SW 248 0 min 0 W/m 4,8 C -2,1 C 24,1 km/h (4 Bft)
31.12.2016 17:27 4,9 C 99 % 1023,4 hPa 0,0 l/m 17,8 km/h (3 Bft) SW 218 0 min 0 W/m 4,8 C -2,4 C 33,8 km/h (5 Bft)
31.12.2016 17:30 4,8 C 98 % 1023,3 hPa 0,0 l/m 17,7 km/h (3 Bft) SW 229 0 min 0 W/m 4,5 C -2,5 C 29,0 km/h (5 Bft)
31.12.2016 17:33 4,8 C 99 % 1023,3 hPa 0,0 l/m 20,3 km/h (4 Bft) SW 214 0 min 0 W/m 4,7 C -3,5 C 27,4 km/h (5 Bft)
31.12.2016 17:36 4,8 C 99 % 1023,2 hPa 0,0 l/m 16,6 km/h (3 Bft) SW 225 0 min 0 W/m 4,7 C -2,0 C 27,4 km/h (5 Bft)
31.12.2016 17:39 4,7 C 99 % 1023,2 hPa 0,0 l/m 16,9 km/h (3 Bft) SW 236 0 min 0 W/m 4,6 C -2,2 C 25,7 km/h (4 Bft)
31.12.2016 17:42 4,7 C 99 % 1023,2 hPa 0,0 l/m 19,3 km/h (3 Bft) W-SW 237 0 min 0 W/m 4,6 C -3,3 C 30,6 km/h (5 Bft)
31.12.2016 17:45 4,7 C 99 % 1023,1 hPa 0,0 l/m 17,3 km/h (3 Bft) W-SW 246 0 min 0 W/m 4,6 C -2,4 C 29,0 km/h (5 Bft)
31.12.2016 17:48 4,7 C 99 % 1023,1 hPa 0,0 l/m 18,5 km/h (3 Bft) S-SW 213 0 min 0 W/m 4,6 C -2,9 C 29,0 km/h (5 Bft)
31.12.2016 17:51 4,6 C 99 % 1023,1 hPa 0,0 l/m 18,5 km/h (3 Bft) SW 234 0 min 0 W/m 4,5 C -3,1 C 32,2 km/h (5 Bft)
31.12.2016 17:54 4,6 C 99 % 1023,0 hPa 0,0 l/m 19,8 km/h (3 Bft) SW 227 0 min 0 W/m 4,5 C -3,6 C 29,0 km/h (5 Bft)
31.12.2016 17:57 4,6 C 99 % 1023,1 hPa 0,0 l/m 21,6 km/h (4 Bft) W-SW 243 0 min 0 W/m 4,5 C -4,3 C 30,6 km/h (5 Bft)
31.12.2016 18:00 4,6 C 98 % 1022,9 hPa 0,0 l/m 17,7 km/h (3 Bft) W-SW 249 0 min 0 W/m 4,3 C -2,7 C 32,2 km/h (5 Bft)
31.12.2016 18:03 4,6 C 98 % 1022,9 hPa 0,0 l/m 18,5 km/h (3 Bft) W-SW 240 0 min 0 W/m 4,3 C -3,1 C 27,4 km/h (5 Bft)
31.12.2016 18:06 4,5 C 98 % 1022,9 hPa 0,0 l/m 18,9 km/h (3 Bft) S-SW 198 0 min 0 W/m 4,2 C -3,4 C 29,0 km/h (5 Bft)
31.12.2016 18:09 4,5 C 98 % 1022,8 hPa 0,0 l/m 19,4 km/h (3 Bft) S-SO 148 0 min 0 W/m 4,2 C -3,6 C 29,0 km/h (5 Bft)
31.12.2016 18:12 4,4 C 98 % 1022,8 hPa 0,0 l/m 18,5 km/h (3 Bft) SW 223 0 min 0 W/m 4,1 C -3,3 C 29,0 km/h (5 Bft)
31.12.2016 18:15 4,4 C 98 % 1022,8 hPa 0,0 l/m 21,2 km/h (4 Bft) SW 217 0 min 0 W/m 4,1 C -4,4 C 33,8 km/h (5 Bft)
31.12.2016 18:18 4,4 C 99 % 1022,7 hPa 0,0 l/m 19,4 km/h (3 Bft) S-SW 195 0 min 0 W/m 4,3 C -3,7 C 32,2 km/h (5 Bft)
31.12.2016 18:21 4,4 C 99 % 1022,7 hPa 0,0 l/m 18,4 km/h (3 Bft) SW 215 0 min 0 W/m 4,3 C -3,3 C 25,7 km/h (4 Bft)
31.12.2016 18:24 4,4 C 99 % 1022,6 hPa 0,0 l/m 18,6 km/h (3 Bft) SW 221 0 min 0 W/m 4,3 C -3,4 C 29,0 km/h (5 Bft)
31.12.2016 18:27 4,4 C 99 % 1022,6 hPa 0,0 l/m 19,4 km/h (3 Bft) S-SW 209 0 min 0 W/m 4,3 C -3,7 C 30,6 km/h (5 Bft)
31.12.2016 18:30 4,4 C 99 % 1022,5 hPa 0,0 l/m 20,1 km/h (4 Bft) S 180 0 min 0 W/m 4,3 C -4,0 C 32,2 km/h (5 Bft)
31.12.2016 18:33 4,4 C 99 % 1022,5 hPa 0,0 l/m 20,5 km/h (4 Bft) SW 216 0 min 0 W/m 4,3 C -4,1 C 33,8 km/h (5 Bft)
31.12.2016 18:36 4,4 C 99 % 1022,5 hPa 0,0 l/m 22,6 km/h (4 Bft) W-SW 238 0 min 0 W/m 4,3 C -4,9 C 38,6 km/h (6 Bft)
31.12.2016 18:39 4,3 C 99 % 1022,4 hPa 0,0 l/m 20,7 km/h (4 Bft) SW 233 0 min 0 W/m 4,2 C -4,4 C 30,6 km/h (5 Bft)
31.12.2016 18:42 4,3 C 98 % 1022,4 hPa 0,0 l/m 20,2 km/h (4 Bft) S-SW 209 0 min 0 W/m 4,0 C -4,2 C 37,0 km/h (5 Bft)
31.12.2016 18:45 4,3 C 98 % 1022,4 hPa 0,0 l/m 18,9 km/h (3 Bft) SW 223 0 min 0 W/m 4,0 C -3,6 C 30,6 km/h (5 Bft)
31.12.2016 18:48 4,3 C 98 % 1022,4 hPa 0,0 l/m 18,5 km/h (3 Bft) S-SW 207 0 min 0 W/m 4,0 C -3,4 C 30,6 km/h (5 Bft)
31.12.2016 18:51 4,3 C 98 % 1022,4 hPa 0,0 l/m 18,6 km/h (3 Bft) W-SW 248 0 min 0 W/m 4,0 C -3,5 C 27,4 km/h (5 Bft)
31.12.2016 18:54 4,3 C 98 % 1022,4 hPa 0,0 l/m 20,4 km/h (4 Bft) SW 225 0 min 0 W/m 4,0 C -4,2 C 33,8 km/h (5 Bft)
31.12.2016 18:57 4,3 C 98 % 1022,3 hPa 0,0 l/m 18,6 km/h (3 Bft) S-SW 202 0 min 0 W/m 4,0 C -3,5 C 29,0 km/h (5 Bft)
31.12.2016 19:00 4,3 C 98 % 1022,3 hPa 0,0 l/m 20,6 km/h (4 Bft) SW 236 0 min 0 W/m 4,0 C -4,3 C 30,6 km/h (5 Bft)
31.12.2016 19:03 4,3 C 98 % 1022,2 hPa 0,0 l/m 18,8 km/h (3 Bft) W-SW 256 0 min 0 W/m 4,0 C -3,6 C 30,6 km/h (5 Bft)
31.12.2016 19:06 4,3 C 98 % 1022,3 hPa 0,0 l/m 17,0 km/h (3 Bft) SW 235 0 min 0 W/m 4,0 C -2,8 C 27,4 km/h (5 Bft)
31.12.2016 19:09 4,3 C 99 % 1022,2 hPa 0,0 l/m 17,9 km/h (3 Bft) S-SW 192 0 min 0 W/m 4,2 C -3,2 C 30,6 km/h (5 Bft)
31.12.2016 19:12 4,3 C 99 % 1022,2 hPa 0,0 l/m 17,7 km/h (3 Bft) SW 223 0 min 0 W/m 4,2 C -3,1 C 30,6 km/h (5 Bft)
31.12.2016 19:15 4,3 C 99 % 1022,1 hPa 0,0 l/m 18,7 km/h (3 Bft) SW 219 0 min 0 W/m 4,2 C -3,5 C 29,0 km/h (5 Bft)
31.12.2016 19:18 4,3 C 99 % 1022,1 hPa 0,0 l/m 18,9 km/h (3 Bft) SW 216 0 min 0 W/m 4,2 C -3,6 C 29,0 km/h (5 Bft)
31.12.2016 19:21 4,3 C 99 % 1022,0 hPa 0,0 l/m 19,6 km/h (3 Bft) SW 218 0 min 0 W/m 4,2 C -3,9 C 33,8 km/h (5 Bft)
31.12.2016 19:24 4,3 C 99 % 1022,0 hPa 0,0 l/m 19,5 km/h (3 Bft) SW 217 0 min 0 W/m 4,2 C -3,9 C 33,8 km/h (5 Bft)
31.12.2016 19:27 4,3 C 99 % 1022,0 hPa 0,0 l/m 19,8 km/h (3 Bft) SW 225 0 min 0 W/m 4,2 C -4,0 C 29,0 km/h (5 Bft)
31.12.2016 19:30 4,3 C 99 % 1021,9 hPa 0,0 l/m 22,3 km/h (4 Bft) SW 221 0 min 0 W/m 4,2 C -5,0 C 35,4 km/h (5 Bft)
31.12.2016 19:33 4,3 C 99 % 1021,9 hPa 0,0 l/m 19,9 km/h (4 Bft) SW 221 0 min 0 W/m 4,2 C -4,0 C 27,4 km/h (5 Bft)
31.12.2016 19:36 4,3 C 99 % 1021,9 hPa 0,0 l/m 19,1 km/h (3 Bft) S-SW 213 0 min 0 W/m 4,2 C -3,7 C 33,8 km/h (5 Bft)
31.12.2016 19:39 4,4 C 99 % 1021,9 hPa 0,0 l/m 19,3 km/h (3 Bft) S-SW 197 0 min 0 W/m 4,3 C -3,7 C 27,4 km/h (5 Bft)
31.12.2016 19:42 4,4 C 99 % 1021,9 hPa 0,0 l/m 19,0 km/h (3 Bft) S-SW 213 0 min 0 W/m 4,3 C -3,5 C 29,0 km/h (5 Bft)
31.12.2016 19:45 4,4 C 99 % 1021,9 hPa 0,0 l/m 17,8 km/h (3 Bft) S-SW 206 0 min 0 W/m 4,3 C -3,0 C 32,2 km/h (5 Bft)
31.12.2016 19:48 4,4 C 99 % 1021,7 hPa 0,0 l/m 21,4 km/h (4 Bft) W-SW 255 0 min 0 W/m 4,3 C -4,5 C 33,8 km/h (5 Bft)
31.12.2016 19:51 4,4 C 99 % 1021,8 hPa 0,0 l/m 17,6 km/h (3 Bft) S-SW 213 0 min 0 W/m 4,3 C -2,9 C 27,4 km/h (5 Bft)
31.12.2016 19:54 4,4 C 99 % 1021,7 hPa 0,0 l/m 22,6 km/h (4 Bft) SW 235 0 min 0 W/m 4,3 C -4,9 C 32,2 km/h (5 Bft)
31.12.2016 19:57 4,4 C 99 % 1021,7 hPa 0,0 l/m 21,0 km/h (4 Bft) SW 231 0 min 0 W/m 4,3 C -4,3 C 33,8 km/h (5 Bft)
31.12.2016 20:00 4,4 C 99 % 1021,7 hPa 0,0 l/m 21,5 km/h (4 Bft) W-SW 242 0 min 0 W/m 4,3 C -4,5 C 30,6 km/h (5 Bft)
31.12.2016 20:03 4,4 C 99 % 1021,7 hPa 0,0 l/m 20,8 km/h (4 Bft) SW 220 0 min 0 W/m 4,3 C -4,3 C 35,4 km/h (5 Bft)
31.12.2016 20:06 4,4 C 99 % 1021,6 hPa 0,0 l/m 17,7 km/h (3 Bft) S-SW 208 0 min 0 W/m 4,3 C -3,0 C 30,6 km/h (5 Bft)
31.12.2016 20:09 4,4 C 99 % 1021,6 hPa 0,0 l/m 22,2 km/h (4 Bft) SW 219 0 min 0 W/m 4,3 C -4,8 C 30,6 km/h (5 Bft)
31.12.2016 20:12 4,4 C 99 % 1021,6 hPa 0,0 l/m 19,6 km/h (3 Bft) SW 227 0 min 0 W/m 4,3 C -3,8 C 30,6 km/h (5 Bft)
31.12.2016 20:15 4,4 C 99 % 1021,6 hPa 0,0 l/m 20,6 km/h (4 Bft) S 176 0 min 0 W/m 4,3 C -4,2 C 30,6 km/h (5 Bft)
31.12.2016 20:18 4,4 C 99 % 1021,6 hPa 0,0 l/m 23,3 km/h (4 Bft) SW 234 0 min 0 W/m 4,3 C -5,2 C 35,4 km/h (5 Bft)
31.12.2016 20:21 4,4 C 99 % 1021,5 hPa 0,0 l/m 19,5 km/h (3 Bft) SW 227 0 min 0 W/m 4,3 C -3,7 C 27,4 km/h (5 Bft)
31.12.2016 20:24 4,5 C 99 % 1021,5 hPa 0,0 l/m 22,4 km/h (4 Bft) S-SW 201 0 min 0 W/m 4,4 C -4,7 C 35,4 km/h (5 Bft)
31.12.2016 20:27 4,5 C 99 % 1021,5 hPa 0,0 l/m 22,4 km/h (4 Bft) S-SW 211 0 min 0 W/m 4,4 C -4,7 C 30,6 km/h (5 Bft)
31.12.2016 20:30 4,5 C 99 % 1021,5 hPa 0,0 l/m 19,2 km/h (3 Bft) SW 225 0 min 0 W/m 4,4 C -3,5 C 27,4 km/h (5 Bft)
31.12.2016 20:33 4,5 C 99 % 1021,4 hPa 0,0 l/m 19,8 km/h (3 Bft) SW 232 0 min 0 W/m 4,4 C -3,7 C 32,2 km/h (5 Bft)
31.12.2016 20:36 4,5 C 99 % 1021,4 hPa 0,0 l/m 21,3 km/h (4 Bft) S-SW 205 0 min 0 W/m 4,4 C -4,3 C 38,6 km/h (6 Bft)
31.12.2016 20:39 4,6 C 99 % 1021,3 hPa 0,0 l/m 20,5 km/h (4 Bft) W-SW 247 0 min 0 W/m 4,5 C -3,9 C 29,0 km/h (5 Bft)
31.12.2016 20:42 4,6 C 99 % 1021,3 hPa 0,0 l/m 20,9 km/h (4 Bft) SW 216 0 min 0 W/m 4,5 C -4,0 C 33,8 km/h (5 Bft)
31.12.2016 20:45 4,6 C 99 % 1021,4 hPa 0,0 l/m 19,1 km/h (3 Bft) S 186 0 min 0 W/m 4,5 C -3,3 C 30,6 km/h (5 Bft)
31.12.2016 20:48 4,6 C 99 % 1021,4 hPa 0,0 l/m 21,1 km/h (4 Bft) S-SW 207 0 min 0 W/m 4,5 C -4,1 C 32,2 km/h (5 Bft)
31.12.2016 20:51 4,6 C 99 % 1021,3 hPa 0,0 l/m 19,1 km/h (3 Bft) SW 235 0 min 0 W/m 4,5 C -3,3 C 29,0 km/h (5 Bft)
31.12.2016 20:54 4,6 C 99 % 1021,3 hPa 0,0 l/m 21,2 km/h (4 Bft) SW 234 0 min 0 W/m 4,5 C -4,2 C 33,8 km/h (5 Bft)
31.12.2016 20:57 4,7 C 99 % 1021,2 hPa 0,0 l/m 22,6 km/h (4 Bft) SW 214 0 min 0 W/m 4,6 C -4,5 C 33,8 km/h (5 Bft)
31.12.2016 21:00 4,7 C 99 % 1021,2 hPa 0,0 l/m 25,0 km/h (4 Bft) S 175 0 min 0 W/m 4,6 C -5,3 C 38,6 km/h (6 Bft)
31.12.2016 21:03 4,7 C 99 % 1021,1 hPa 0,0 l/m 21,2 km/h (4 Bft) SW 229 0 min 0 W/m 4,6 C -4,0 C 25,7 km/h (4 Bft)
31.12.2016 21:06 4,7 C 99 % 1021,1 hPa 0,0 l/m 19,0 km/h (3 Bft) SW 215 0 min 0 W/m 4,6 C -3,1 C 27,4 km/h (5 Bft)
31.12.2016 21:09 4,7 C 99 % 1021,1 hPa 0,0 l/m 21,4 km/h (4 Bft) W-SW 238 0 min 0 W/m 4,6 C -4,1 C 35,4 km/h (5 Bft)
31.12.2016 21:12 4,7 C 99 % 1021,1 hPa 0,0 l/m 18,1 km/h (3 Bft) SW 219 0 min 0 W/m 4,6 C -2,8 C 27,4 km/h (5 Bft)
31.12.2016 21:15 4,7 C 99 % 1021,0 hPa 0,0 l/m 19,6 km/h (3 Bft) S-SW 198 0 min 0 W/m 4,6 C -3,4 C 32,2 km/h (5 Bft)
31.12.2016 21:18 4,6 C 99 % 1021,0 hPa 0,0 l/m 17,8 km/h (3 Bft) SW 219 0 min 0 W/m 4,5 C -2,8 C 29,0 km/h (5 Bft)
31.12.2016 21:21 4,6 C 99 % 1021,0 hPa 0,0 l/m 19,9 km/h (4 Bft) SW 223 0 min 0 W/m 4,5 C -3,6 C 30,6 km/h (5 Bft)
31.12.2016 21:24 4,7 C 99 % 1020,9 hPa 0,0 l/m 20,4 km/h (4 Bft) SW 226 0 min 0 W/m 4,6 C -3,7 C 30,6 km/h (5 Bft)
31.12.2016 21:27 4,7 C 99 % 1020,9 hPa 0,0 l/m 21,4 km/h (4 Bft) S-SW 202 0 min 0 W/m 4,6 C -4,1 C 35,4 km/h (5 Bft)
31.12.2016 21:30 4,7 C 99 % 1020,8 hPa 0,0 l/m 23,8 km/h (4 Bft) SW 215 0 min 0 W/m 4,6 C -5,0 C 32,2 km/h (5 Bft)
31.12.2016 21:33 4,7 C 99 % 1020,8 hPa 0,0 l/m 18,8 km/h (3 Bft) SW 231 0 min 0 W/m 4,6 C -3,1 C 27,4 km/h (5 Bft)
31.12.2016 21:36 4,7 C 99 % 1020,8 hPa 0,0 l/m 20,4 km/h (4 Bft) W-SW 257 0 min 0 W/m 4,6 C -3,7 C 32,2 km/h (5 Bft)
31.12.2016 21:39 4,7 C 99 % 1020,8 hPa 0,0 l/m 19,7 km/h (3 Bft) SW 229 0 min 0 W/m 4,6 C -3,4 C 27,4 km/h (5 Bft)
31.12.2016 21:42 4,7 C 99 % 1020,8 hPa 0,0 l/m 18,3 km/h (3 Bft) SW 234 0 min 0 W/m 4,6 C -2,9 C 25,7 km/h (4 Bft)
31.12.2016 21:45 4,7 C 99 % 1020,8 hPa 0,0 l/m 20,5 km/h (4 Bft) S-SW 212 0 min 0 W/m 4,6 C -3,8 C 30,6 km/h (5 Bft)
31.12.2016 21:48 4,7 C 99 % 1020,8 hPa 0,0 l/m 17,3 km/h (3 Bft) SW 229 0 min 0 W/m 4,6 C -2,4 C 25,7 km/h (4 Bft)
31.12.2016 21:51 4,7 C 99 % 1020,8 hPa 0,0 l/m 16,7 km/h (3 Bft) S-SW 207 0 min 0 W/m 4,6 C -2,1 C 29,0 km/h (5 Bft)
31.12.2016 21:54 4,7 C 99 % 1020,7 hPa 0,0 l/m 17,1 km/h (3 Bft) SW 220 0 min 0 W/m 4,6 C -2,3 C 22,5 km/h (4 Bft)
31.12.2016 21:57 4,7 C 99 % 1020,7 hPa 0,0 l/m 18,2 km/h (3 Bft) SW 233 0 min 0 W/m 4,6 C -2,8 C 29,0 km/h (5 Bft)
31.12.2016 22:00 4,6 C 99 % 1020,8 hPa 0,0 l/m 18,8 km/h (3 Bft) W-SW 242 0 min 0 W/m 4,5 C -3,2 C 29,0 km/h (5 Bft)
31.12.2016 22:03 4,6 C 99 % 1020,7 hPa 0,0 l/m 19,3 km/h (3 Bft) S-SW 205 0 min 0 W/m 4,5 C -3,4 C 30,6 km/h (5 Bft)
31.12.2016 22:06 4,6 C 99 % 1020,7 hPa 0,0 l/m 18,2 km/h (3 Bft) SW 234 0 min 0 W/m 4,5 C -2,9 C 27,4 km/h (5 Bft)
31.12.2016 22:09 4,6 C 99 % 1020,7 hPa 0,0 l/m 18,8 km/h (3 Bft) W 261 0 min 0 W/m 4,5 C -3,2 C 25,7 km/h (4 Bft)
31.12.2016 22:12 4,5 C 99 % 1020,7 hPa 0,0 l/m 16,3 km/h (3 Bft) SW 230 0 min 0 W/m 4,4 C -2,2 C 25,7 km/h (4 Bft)
31.12.2016 22:15 4,5 C 99 % 1020,7 hPa 0,0 l/m 17,7 km/h (3 Bft) SW 226 0 min 0 W/m 4,4 C -2,8 C 25,7 km/h (4 Bft)
31.12.2016 22:18 4,5 C 99 % 1020,6 hPa 0,0 l/m 17,5 km/h (3 Bft) SW 214 0 min 0 W/m 4,4 C -2,7 C 29,0 km/h (5 Bft)
31.12.2016 22:21 4,5 C 99 % 1020,5 hPa 0,0 l/m 18,2 km/h (3 Bft) S-SW 206 0 min 0 W/m 4,4 C -3,1 C 27,4 km/h (5 Bft)
31.12.2016 22:24 4,4 C 99 % 1020,5 hPa 0,0 l/m 17,0 km/h (3 Bft) S-SW 210 0 min 0 W/m 4,3 C -2,6 C 27,4 km/h (5 Bft)
31.12.2016 22:27 4,4 C 99 % 1020,5 hPa 0,0 l/m 16,8 km/h (3 Bft) W-SW 240 0 min 0 W/m 4,3 C -2,5 C 29,0 km/h (5 Bft)
31.12.2016 22:30 4,4 C 99 % 1020,3 hPa 0,0 l/m 17,3 km/h (3 Bft) S-SW 202 0 min 0 W/m 4,3 C -2,8 C 25,7 km/h (4 Bft)
31.12.2016 22:33 4,4 C 99 % 1020,4 hPa 0,0 l/m 17,5 km/h (3 Bft) S-SW 210 0 min 0 W/m 4,3 C -2,9 C 29,0 km/h (5 Bft)
31.12.2016 22:36 4,4 C 99 % 1020,4 hPa 0,0 l/m 17,8 km/h (3 Bft) W-SW 248 0 min 0 W/m 4,3 C -3,0 C 30,6 km/h (5 Bft)
31.12.2016 22:39 4,4 C 99 % 1020,3 hPa 0,0 l/m 19,2 km/h (3 Bft) S-SW 199 0 min 0 W/m 4,3 C -3,6 C 27,4 km/h (5 Bft)
31.12.2016 22:42 4,4 C 99 % 1020,3 hPa 0,0 l/m 19,2 km/h (3 Bft) W-SW 252 0 min 0 W/m 4,3 C -3,6 C 30,6 km/h (5 Bft)
31.12.2016 22:45 4,4 C 99 % 1020,2 hPa 0,0 l/m 20,4 km/h (4 Bft) SW 224 0 min 0 W/m 4,3 C -4,1 C 30,6 km/h (5 Bft)
31.12.2016 22:48 4,4 C 99 % 1020,1 hPa 0,0 l/m 19,4 km/h (3 Bft) SW 228 0 min 0 W/m 4,3 C -3,7 C 27,4 km/h (5 Bft)
31.12.2016 22:51 4,5 C 99 % 1020,1 hPa 0,0 l/m 18,6 km/h (3 Bft) SW 215 0 min 0 W/m 4,4 C -3,2 C 27,4 km/h (5 Bft)
31.12.2016 22:54 4,5 C 99 % 1020,1 hPa 0,0 l/m 18,4 km/h (3 Bft) S-SW 210 0 min 0 W/m 4,4 C -3,1 C 27,4 km/h (5 Bft)
31.12.2016 22:57 4,5 C 99 % 1020,1 hPa 0,0 l/m 20,0 km/h (4 Bft) SW 229 0 min 0 W/m 4,4 C -3,8 C 29,0 km/h (5 Bft)
31.12.2016 23:00 4,5 C 99 % 1020,0 hPa 0,0 l/m 19,8 km/h (3 Bft) SW 219 0 min 0 W/m 4,4 C -3,7 C 29,0 km/h (5 Bft)
31.12.2016 23:03 4,5 C 99 % 1020,0 hPa 0,0 l/m 19,3 km/h (3 Bft) SW 224 0 min 0 W/m 4,4 C -3,5 C 32,2 km/h (5 Bft)
31.12.2016 23:06 4,5 C 99 % 1019,9 hPa 0,0 l/m 18,0 km/h (3 Bft) S-SW 205 0 min 0 W/m 4,4 C -3,0 C 29,0 km/h (5 Bft)
31.12.2016 23:09 4,4 C 99 % 1019,8 hPa 0,0 l/m 18,2 km/h (3 Bft) S-SW 210 0 min 0 W/m 4,3 C -3,2 C 27,4 km/h (5 Bft)
31.12.2016 23:12 4,4 C 99 % 1019,9 hPa 0,0 l/m 18,3 km/h (3 Bft) SW 228 0 min 0 W/m 4,3 C -3,2 C 30,6 km/h (5 Bft)
31.12.2016 23:15 4,4 C 99 % 1019,9 hPa 0,0 l/m 19,2 km/h (3 Bft) SW 232 0 min 0 W/m 4,3 C -3,6 C 27,4 km/h (5 Bft)
31.12.2016 23:18 4,5 C 99 % 1019,8 hPa 0,0 l/m 21,8 km/h (4 Bft) S-SW 198 0 min 0 W/m 4,4 C -4,5 C 30,6 km/h (5 Bft)
31.12.2016 23:21 4,6 C 99 % 1019,8 hPa 0,0 l/m 21,1 km/h (4 Bft) W-SW 240 0 min 0 W/m 4,5 C -4,1 C 32,2 km/h (5 Bft)
31.12.2016 23:24 4,6 C 99 % 1019,8 hPa 0,0 l/m 21,2 km/h (4 Bft) S-SW 213 0 min 0 W/m 4,5 C -4,2 C 29,0 km/h (5 Bft)
31.12.2016 23:27 4,6 C 99 % 1019,8 hPa 0,0 l/m 23,0 km/h (4 Bft) S-SW 213 0 min 0 W/m 4,5 C -4,8 C 30,6 km/h (5 Bft)
31.12.2016 23:30 4,6 C 99 % 1019,8 hPa 0,0 l/m 18,4 km/h (3 Bft) SW 215 0 min 0 W/m 4,5 C -3,0 C 25,7 km/h (4 Bft)
31.12.2016 23:33 4,6 C 99 % 1019,7 hPa 0,0 l/m 21,3 km/h (4 Bft) SW 224 0 min 0 W/m 4,5 C -4,2 C 29,0 km/h (5 Bft)
31.12.2016 23:36 4,6 C 99 % 1019,7 hPa 0,0 l/m 19,7 km/h (3 Bft) S-SW 203 0 min 0 W/m 4,5 C -3,6 C 30,6 km/h (5 Bft)
31.12.2016 23:39 4,6 C 99 % 1019,7 hPa 0,0 l/m 21,3 km/h (4 Bft) S-SW 203 0 min 0 W/m 4,5 C -4,2 C 30,6 km/h (5 Bft)
31.12.2016 23:42 4,6 C 99 % 1019,7 hPa 0,0 l/m 18,6 km/h (3 Bft) SW 230 0 min 0 W/m 4,5 C -3,1 C 24,1 km/h (4 Bft)
31.12.2016 23:45 4,6 C 99 % 1019,6 hPa 0,0 l/m 21,0 km/h (4 Bft) S-SW 201 0 min 0 W/m 4,5 C -4,1 C 29,0 km/h (5 Bft)
31.12.2016 23:48 4,6 C 99 % 1019,5 hPa 0,0 l/m 21,2 km/h (4 Bft) SW 216 0 min 0 W/m 4,5 C -4,2 C 32,2 km/h (5 Bft)
31.12.2016 23:51 4,6 C 99 % 1019,4 hPa 0,0 l/m 21,3 km/h (4 Bft) S-SW 205 0 min 0 W/m 4,5 C -4,2 C 30,6 km/h (5 Bft)
31.12.2016 23:54 4,6 C 99 % 1019,3 hPa 0,0 l/m 20,7 km/h (4 Bft) SW 234 0 min 0 W/m 4,5 C -4,0 C 30,6 km/h (5 Bft)
31.12.2016 23:57 4,6 C 99 % 1019,3 hPa 0,0 l/m 21,5 km/h (4 Bft) SW 217 0 min 0 W/m 4,5 C -4,3 C 33,8 km/h (5 Bft)
_ Min-Zeit 00:00 00:00 23:54 - 06:03 - - - - 00:00 00:00 05:27
Minimum _ 2,0 C 98 % 1019,3 hPa - 12,6 km/h (3 Bft) - - - - 1,7 C -7,1 C 19,3 km/h (3 Bft)
_ Max-Zeit 16:27 10:36 00:00 00:00 21:00 - - 00:00 12:03 16:27 16:27 18:36
Maximum _ 5,0 C 99 % 1030,8 hPa 0,0 l/m 25,0 km/h
S (4 Bft)
- - 0 min 35 W/m 4,9 C -0,8 C 38,6 km/h
S-SW (6 Bft)
Durchschnitt _ 4,0 C 98 % 1025,8 hPa #0,0 l/m 18,1 km/h (3 Bft) SW - #0 min. 20 W/m 3,7 C -3,6 C 27,8 km/h (5 Bft)
2017 Cux-Wetter.de -Die Nutzung der Wetterdaten nur mit ausdrcklicher Genehmigung